Time,TemperatureF,DewpointF,PressureIn,WindDirection,WindDirectionDegrees,WindSpeedMPH,WindSpeedGustMPH,Humidity,HourlyPrecipIn,Conditions,Clouds,dailyrainin,SoftwareType,DateUTC
2013-01-09 00:00:00,32.7,24.0,30.40,ESE,106,0.0,0.0,70,0.00,CLR,,0.00,WeatherDisplay:10.37,2013-01-09 05:00:00,
2013-01-09 00:02:00,32.9,24.2,30.40,ESE,106,0.0,0.0,70,0.00,CLR,,0.00,WeatherDisplay:10.37,2013-01-09 05:02:00,
2013-01-09 00:04:00,32.7,24.0,30.40,ESE,106,0.0,0.0,70,0.00,CLR,,0.00,WeatherDisplay:10.37,2013-01-09 05:04:00,
2013-01-09 00:05:00,32.2,23.5,30.40,ESE,106,0.0,0.0,70,0.00,CLR,,0.00,WeatherDisplay:10.37,2013-01-09 05:05:00,
2013-01-09 00:07:00,32.1,23.8,30.40,ESE,106,0.0,0.0,71,0.00,CLR,,0.00,WeatherDisplay:10.37,2013-01-09 05:07:00,
2013-01-09 00:08:00,32.7,24.7,30.40,ESE,106,0.0,0.0,72,0.00,CLR,,0.00,WeatherDisplay:10.37,2013-01-09 05:08:00,
2013-01-09 00:09:00,32.6,24.6,30.40,ESE,106,0.0,0.0,72,0.00,CLR,,0.00,WeatherDisplay:10.37,2013-01-09 05:09:00,
2013-01-09 00:10:00,32.7,24.7,30.40,ESE,106,0.0,0.0,72,0.00,CLR,,0.00,WeatherDisplay:10.37,2013-01-09 05:10:00,
2013-01-09 00:13:00,31.5,24.2,30.40,ESE,106,0.0,0.0,74,0.00,CLR,,0.00,WeatherDisplay:10.37,2013-01-09 05:13:00,
2013-01-09 00:14:00,33.2,25.8,30.40,ESE,106,0.0,0.0,74,0.00,CLR,,0.00,WeatherDisplay:10.37,2013-01-09 05:14:00,
2013-01-09 00:16:00,32.9,25.2,30.39,ESE,106,0.0,0.0,73,0.00,CLR,,0.00,WeatherDisplay:10.37,2013-01-09 05:16:00,
2013-01-09 00:17:00,33.1,25.1,30.39,ESE,106,0.0,0.0,72,0.00,CLR,,0.00,WeatherDisplay:10.37,2013-01-09 05:17:00,
2013-01-09 00:19:00,33.0,25.0,30.38,ESE,106,0.0,0.0,72,0.00,CLR,,0.00,WeatherDisplay:10.37,2013-01-09 05:19:00,
2013-01-09 00:22:00,32.0,23.7,30.38,ESE,106,0.0,0.0,71,0.00,CLR,,0.00,WeatherDisplay:10.37,2013-01-09 05:22:00,
2013-01-09 00:24:00,31.8,23.5,30.38,ESE,106,0.0,0.0,71,0.00,CLR,,0.00,WeatherDisplay:10.37,2013-01-09 05:24:00,
2013-01-09 00:25:00,31.7,24.0,30.38,ESE,106,0.0,0.0,73,0.00,CLR,,0.00,WeatherDisplay:10.37,2013-01-09 05:25:00,
2013-01-09 00:27:00,31.8,24.1,30.38,ESE,106,0.0,0.0,73,0.00,CLR,,0.00,WeatherDisplay:10.37,2013-01-09 05:27:00,
2013-01-09 00:30:00,31.5,23.8,30.39,ESE,106,0.0,0.0,73,0.00,CLR,,0.00,WeatherDisplay:10.37,2013-01-09 05:30:00,
2013-01-09 00:31:00,32.1,24.7,30.39,ESE,106,0.0,0.0,74,0.00,CLR,,0.00,WeatherDisplay:10.37,2013-01-09 05:31:00,
2013-01-09 00:35:00,32.2,24.8,30.38,ESE,106,0.0,0.0,74,0.00,CLR,,0.00,WeatherDisplay:10.37,2013-01-09 05:35:00,
2013-01-09 00:36:00,31.8,24.8,30.38,ESE,106,0.0,0.0,75,0.00,CLR,,0.00,WeatherDisplay:10.37,2013-01-09 05:36:00,
2013-01-09 00:37:00,32.0,24.6,30.38,ESE,106,0.0,0.0,74,0.00,CLR,,0.00,WeatherDisplay:10.37,2013-01-09 05:37:00,
2013-01-09 00:41:00,32.1,25.1,30.39,ESE,106,0.0,0.0,75,0.00,CLR,,0.00,WeatherDisplay:10.37,2013-01-09 05:41:00,
2013-01-09 00:43:00,32.1,25.7,30.39,ESE,106,0.0,0.0,77,0.00,CLR,,0.00,WeatherDisplay:10.37,2013-01-09 05:43:00,
2013-01-09 00:46:00,31.9,24.9,30.38,ENE,68,4.6,4.6,75,0.00,CLR,,0.00,WeatherDisplay:10.37,2013-01-09 05:46:00,
2013-01-09 00:47:00,31.9,24.9,30.38,ENE,68,0.0,0.0,75,0.00,CLR,,0.00,WeatherDisplay:10.37,2013-01-09 05:47:00,
2013-01-09 00:48:00,31.5,24.5,30.38,ENE,68,0.0,0.0,75,0.00,CLR,,0.00,WeatherDisplay:10.37,2013-01-09 05:48:00,
2013-01-09 00:50:00,31.2,24.5,30.39,ENE,68,0.0,0.0,76,0.00,CLR,,0.00,WeatherDisplay:10.37,2013-01-09 05:50:00,
2013-01-09 00:53:00,31.6,25.8,30.39,ENE,68,0.0,0.0,79,0.00,CLR,,0.00,WeatherDisplay:10.37,2013-01-09 05:53:00,
2013-01-09 00:55:00,32.1,26.3,30.39,ENE,68,0.0,0.0,79,0.00,CLR,,0.00,WeatherDisplay:10.37,2013-01-09 05:55:00,
2013-01-09 00:59:00,32.7,26.3,30.38,ENE,68,0.0,0.0,77,0.00,CLR,,0.00,WeatherDisplay:10.37,2013-01-09 05:59:00,
2013-01-09 01:01:00,32.9,26.2,30.38,ENE,68,0.0,0.0,76,0.00,CLR,,0.00,WeatherDisplay:10.37,2013-01-09 06:01:00,
2013-01-09 01:02:00,32.8,25.4,30.38,ENE,68,0.0,0.0,74,0.00,CLR,,0.00,WeatherDisplay:10.37,2013-01-09 06:02:00,
2013-01-09 01:06:00,34.4,26.0,30.38,ENE,68,0.0,0.0,71,0.00,CLR,,0.00,WeatherDisplay:10.37,2013-01-09 06:06:00,
2013-01-09 01:07:00,34.4,25.6,30.37,ENE,68,0.0,0.0,70,0.00,CLR,,0.00,WeatherDisplay:10.37,2013-01-09 06:07:00,
2013-01-09 01:08:00,34.4,25.6,30.38,ENE,68,0.0,0.0,70,0.00,CLR,,0.00,WeatherDisplay:10.37,2013-01-09 06:08:00,
2013-01-09 01:13:00,34.3,24.5,30.37,ENE,68,0.0,0.0,67,0.00,CLR,,0.00,WeatherDisplay:10.37,2013-01-09 06:13:00,
2013-01-09 01:14:00,34.2,24.4,30.38,ENE,68,0.0,0.0,67,0.00,CLR,,0.00,WeatherDisplay:10.37,2013-01-09 06:14:00,
2013-01-09 01:19:00,34.1,24.3,30.37,ENE,68,0.0,0.0,67,0.00,CLR,,0.00,WeatherDisplay:10.37,2013-01-09 06:19:00,
2013-01-09 01:20:00,34.0,24.5,30.37,ENE,68,0.0,0.0,68,0.00,CLR,,0.00,WeatherDisplay:10.37,2013-01-09 06:20:00,
2013-01-09 01:22:00,34.0,25.2,30.37,ENE,68,0.0,0.0,70,0.00,CLR,,0.00,WeatherDisplay:10.37,2013-01-09 06:22:00,
2013-01-09 01:24:00,33.7,25.3,30.37,ENE,68,0.0,0.0,71,0.00,CLR,,0.00,WeatherDisplay:10.37,2013-01-09 06:24:00,
2013-01-09 01:25:00,33.7,25.0,30.37,ENE,68,0.0,0.0,70,0.00,CLR,,0.00,WeatherDisplay:10.37,2013-01-09 06:25:00,
2013-01-09 01:27:00,32.7,25.0,30.38,ENE,68,0.0,0.0,73,0.00,CLR,,0.00,WeatherDisplay:10.37,2013-01-09 06:27:00,
2013-01-09 01:30:00,32.7,26.0,30.38,ENE,68,0.0,0.0,76,0.00,CLR,,0.00,WeatherDisplay:10.37,2013-01-09 06:30:00,
2013-01-09 01:31:00,32.7,26.6,30.38,ENE,68,0.0,0.0,78,0.00,CLR,,0.00,WeatherDisplay:10.37,2013-01-09 06:31:00,
2013-01-09 01:32:00,31.3,25.5,30.38,ENE,68,0.0,0.0,79,0.00,CLR,,0.00,WeatherDisplay:10.37,2013-01-09 06:32:00,
2013-01-09 01:34:00,31.3,25.8,30.38,ENE,68,0.0,0.0,80,0.00,CLR,,0.00,WeatherDisplay:10.37,2013-01-09 06:34:00,
2013-01-09 01:36:00,32.4,27.5,30.38,ENE,68,0.0,0.0,82,0.00,CLR,,0.00,WeatherDisplay:10.37,2013-01-09 06:36:00,
2013-01-09 01:38:00,31.9,27.3,30.38,ENE,68,0.0,0.0,83,0.00,CLR,,0.00,WeatherDisplay:10.37,2013-01-09 06:38:00,
2013-01-09 01:42:00,31.1,27.1,30.37,ENE,68,0.0,0.0,85,0.00,CLR,,0.00,WeatherDisplay:10.37,2013-01-09 06:42:00,
2013-01-09 01:43:00,31.2,27.5,30.38,ENE,68,0.0,0.0,86,0.00,CLR,,0.00,WeatherDisplay:10.37,2013-01-09 06:43:00,
2013-01-09 01:44:00,31.1,27.4,30.38,ENE,68,0.0,0.0,86,0.00,CLR,,0.00,WeatherDisplay:10.37,2013-01-09 06:44:00,
2013-01-09 01:48:00,31.1,26.8,30.38,ENE,68,0.0,0.0,84,0.00,CLR,,0.00,WeatherDisplay:10.37,2013-01-09 06:48:00,
2013-01-09 01:49:00,30.6,26.9,30.38,ENE,68,0.0,0.0,86,0.00,CLR,,0.00,WeatherDisplay:10.37,2013-01-09 06:49:00,
2013-01-09 01:50:00,31.1,27.7,30.38,ENE,68,0.0,0.0,87,0.00,CLR,,0.00,WeatherDisplay:10.37,2013-01-09 06:50:00,
2013-01-09 01:53:00,30.9,28.0,30.39,ENE,68,0.0,0.0,89,0.00,CLR,,0.00,WeatherDisplay:10.37,2013-01-09 06:53:00,
2013-01-09 01:54:00,31.6,28.7,30.39,ENE,68,0.0,0.0,89,0.00,CLR,,0.00,WeatherDisplay:10.37,2013-01-09 06:54:00,
2013-01-09 01:58:00,30.8,28.8,30.39,ENE,68,0.0,0.0,92,0.00,CLR,,0.00,WeatherDisplay:10.37,2013-01-09 06:58:00,
2013-01-09 01:59:00,30.5,28.5,30.39,ENE,68,0.0,0.0,92,0.00,CLR,,0.00,WeatherDisplay:10.37,2013-01-09 06:59:00,
2013-01-09 02:03:00,31.1,29.3,30.38,ENE,68,0.0,0.0,93,0.00,CLR,,0.00,WeatherDisplay:10.37,2013-01-09 07:03:00,
2013-01-09 02:04:00,31.1,29.3,30.38,ENE,68,0.0,0.0,93,0.00,CLR,,0.00,WeatherDisplay:10.37,2013-01-09 07:04:00,
2013-01-09 02:05:00,31.8,30.0,30.38,ENE,68,0.0,0.0,93,0.00,CLR,,0.00,WeatherDisplay:10.37,2013-01-09 07:05:00,
2013-01-09 02:08:00,31.5,29.4,30.39,ENE,68,0.0,0.0,92,0.00,CLR,,0.00,WeatherDisplay:10.37,2013-01-09 07:08:00,
2013-01-09 02:10:00,31.6,29.5,30.39,ENE,68,0.0,0.0,92,0.00,CLR,,0.00,WeatherDisplay:10.37,2013-01-09 07:10:00,
2013-01-09 02:14:00,31.9,29.6,30.39,ENE,68,0.0,0.0,91,0.00,CLR,,0.00,WeatherDisplay:10.37,2013-01-09 07:14:00,
2013-01-09 02:15:00,31.4,28.8,30.39,ENE,68,0.0,0.0,90,0.00,CLR,,0.00,WeatherDisplay:10.37,2013-01-09 07:15:00,
2013-01-09 02:16:00,31.4,28.8,30.39,ENE,68,0.0,0.0,90,0.00,CLR,,0.00,WeatherDisplay:10.37,2013-01-09 07:16:00,
2013-01-09 02:19:00,31.4,28.5,30.40,ENE,68,0.0,0.0,89,0.00,CLR,,0.00,WeatherDisplay:10.37,2013-01-09 07:19:00,
2013-01-09 02:20:00,31.4,28.5,30.40,ENE,68,0.0,0.0,89,0.00,CLR,,0.00,WeatherDisplay:10.37,2013-01-09 07:20:00,
2013-01-09 02:24:00,31.8,28.7,30.40,ENE,68,0.0,0.0,88,0.00,CLR,,0.00,WeatherDisplay:10.37,2013-01-09 07:24:00,
2013-01-09 02:26:00,31.9,28.8,30.39,ENE,68,0.0,0.0,88,0.00,CLR,,0.00,WeatherDisplay:10.37,2013-01-09 07:26:00,
2013-01-09 02:27:00,31.9,28.8,30.39,ENE,68,0.0,0.0,88,0.00,CLR,,0.00,WeatherDisplay:10.37,2013-01-09 07:27:00,
2013-01-09 02:29:00,30.8,27.9,30.39,ENE,68,0.0,0.0,89,0.00,CLR,,0.00,WeatherDisplay:10.37,2013-01-09 07:29:00,
2013-01-09 02:30:00,31.2,28.6,30.40,ENE,68,0.0,0.0,90,0.00,CLR,,0.00,WeatherDisplay:10.37,2013-01-09 07:30:00,
2013-01-09 02:32:00,30.6,28.3,30.39,ENE,68,0.0,0.0,91,0.00,CLR,,0.00,WeatherDisplay:10.37,2013-01-09 07:32:00,
2013-01-09 02:33:00,30.9,28.6,30.40,ENE,68,0.0,0.0,91,0.00,CLR,,0.00,WeatherDisplay:10.37,2013-01-09 07:33:00,
2013-01-09 02:36:00,30.9,28.6,30.40,ENE,68,0.0,0.0,91,0.00,CLR,,0.00,WeatherDisplay:10.37,2013-01-09 07:36:00,
2013-01-09 02:38:00,30.5,28.2,30.40,ENE,68,0.0,0.0,91,0.00,CLR,,0.00,WeatherDisplay:10.37,2013-01-09 07:38:00,
2013-01-09 02:39:00,30.7,28.7,30.40,ENE,68,0.0,0.0,92,0.00,CLR,,0.00,WeatherDisplay:10.37,2013-01-09 07:39:00,
2013-01-09 02:41:00,30.2,27.9,30.40,ENE,68,0.0,0.0,91,0.00,CLR,,0.00,WeatherDisplay:10.37,2013-01-09 07:41:00,
2013-01-09 02:43:00,30.9,28.6,30.39,ENE,68,0.0,0.0,91,0.00,CLR,,0.00,WeatherDisplay:10.37,2013-01-09 07:43:00,
2013-01-09 02:45:00,30.9,28.9,30.38,ENE,68,0.0,0.0,92,0.00,CLR,,0.00,WeatherDisplay:10.37,2013-01-09 07:45:00,
2013-01-09 02:46:00,30.8,28.5,30.38,ENE,68,0.0,0.0,91,0.00,CLR,,0.00,WeatherDisplay:10.37,2013-01-09 07:46:00,
2013-01-09 02:48:00,30.8,28.5,30.38,ENE,68,0.0,0.0,91,0.00,CLR,,0.00,WeatherDisplay:10.37,2013-01-09 07:48:00,
2013-01-09 02:49:00,31.0,28.6,30.38,ENE,68,0.0,0.0,91,0.00,CLR,,0.00,WeatherDisplay:10.37,2013-01-09 07:49:00,
2013-01-09 02:51:00,31.1,29.0,30.38,ENE,68,0.0,0.0,92,0.00,CLR,,0.00,WeatherDisplay:10.37,2013-01-09 07:51:00,
2013-01-09 02:52:00,31.1,29.0,30.38,ENE,68,0.0,0.0,92,0.00,CLR,,0.00,WeatherDisplay:10.37,2013-01-09 07:52:00,
2013-01-09 02:54:00,31.1,28.8,30.38,ENE,68,0.0,0.0,91,0.00,CLR,,0.00,WeatherDisplay:10.37,2013-01-09 07:54:00,
2013-01-09 02:57:00,30.9,28.6,30.38,ENE,68,0.0,0.0,91,0.00,CLR,,0.00,WeatherDisplay:10.37,2013-01-09 07:57:00,
2013-01-09 02:58:00,30.9,28.6,30.38,ENE,68,0.0,0.0,91,0.00,CLR,,0.00,WeatherDisplay:10.37,2013-01-09 07:58:00,
2013-01-09 03:00:00,30.9,28.6,30.38,ENE,68,0.0,0.0,91,0.00,CLR,,0.00,WeatherDisplay:10.37,2013-01-09 08:00:00,
2013-01-09 03:03:00,30.8,28.5,30.38,ENE,68,0.0,0.0,91,0.00,CLR,,0.00,WeatherDisplay:10.37,2013-01-09 08:03:00,
2013-01-09 03:04:00,31.0,28.7,30.38,ENE,68,0.0,0.0,91,0.00,CLR,,0.00,WeatherDisplay:10.37,2013-01-09 08:04:00,
2013-01-09 03:05:00,30.9,28.6,30.38,ENE,68,0.0,0.0,91,0.00,CLR,,0.00,WeatherDisplay:10.37,2013-01-09 08:05:00,
2013-01-09 03:09:00,31.0,28.4,30.38,ENE,68,0.0,0.0,90,0.00,CLR,,0.00,WeatherDisplay:10.37,2013-01-09 08:09:00,
2013-01-09 03:10:00,30.5,27.9,30.38,ENE,68,0.0,0.0,90,0.00,CLR,,0.00,WeatherDisplay:10.37,2013-01-09 08:10:00,
2013-01-09 03:11:00,30.8,28.2,30.38,ENE,68,0.0,0.0,90,0.00,CLR,,0.00,WeatherDisplay:10.37,2013-01-09 08:11:00,
2013-01-09 03:14:00,31.5,28.9,30.38,ENE,68,0.0,0.0,90,0.00,CLR,,0.00,WeatherDisplay:10.37,2013-01-09 08:14:00,
2013-01-09 03:15:00,31.5,28.9,30.38,ENE,68,0.0,0.0,90,0.00,CLR,,0.00,WeatherDisplay:10.37,2013-01-09 08:15:00,
2013-01-09 03:16:00,31.5,28.9,30.38,ENE,68,0.0,0.0,90,0.00,CLR,,0.00,WeatherDisplay:10.37,2013-01-09 08:16:00,
2013-01-09 03:17:00,30.8,28.2,30.38,ENE,68,0.0,0.0,90,0.00,CLR,,0.00,WeatherDisplay:10.37,2013-01-09 08:17:00,
2013-01-09 03:19:00,30.7,28.1,30.38,ENE,68,0.0,0.0,90,0.00,CLR,,0.00,WeatherDisplay:10.37,2013-01-09 08:19:00,
2013-01-09 03:21:00,30.8,28.2,30.38,ENE,68,0.0,0.0,90,0.00,CLR,,0.00,WeatherDisplay:10.37,2013-01-09 08:21:00,
2013-01-09 03:23:00,30.9,28.3,30.38,ENE,68,0.0,0.0,90,0.00,CLR,,0.00,WeatherDisplay:10.37,2013-01-09 08:23:00,
2013-01-09 03:25:00,30.7,28.1,30.38,ENE,68,0.0,0.0,90,0.00,CLR,,0.00,WeatherDisplay:10.37,2013-01-09 08:25:00,
2013-01-09 03:26:00,30.7,28.1,30.38,ENE,68,0.0,0.0,90,0.00,CLR,,0.00,WeatherDisplay:10.37,2013-01-09 08:26:00,
2013-01-09 03:27:00,30.5,27.9,30.38,ENE,68,0.0,0.0,90,0.00,CLR,,0.00,WeatherDisplay:10.37,2013-01-09 08:27:00,
2013-01-09 03:28:00,30.9,28.3,30.38,ENE,68,0.0,0.0,90,0.00,CLR,,0.00,WeatherDisplay:10.37,2013-01-09 08:28:00,
2013-01-09 03:31:00,30.5,27.9,30.39,ENE,68,0.0,0.0,90,0.00,CLR,,0.00,WeatherDisplay:10.37,2013-01-09 08:31:00,
2013-01-09 03:33:00,30.7,28.1,30.38,ENE,68,0.0,0.0,90,0.00,CLR,,0.00,WeatherDisplay:10.37,2013-01-09 08:33:00,
2013-01-09 03:34:00,30.6,28.0,30.38,ENE,68,0.0,0.0,90,0.00,CLR,,0.00,WeatherDisplay:10.37,2013-01-09 08:34:00,
2013-01-09 03:35:00,30.3,27.7,30.38,ENE,68,0.0,0.0,90,0.00,CLR,,0.00,WeatherDisplay:10.37,2013-01-09 08:35:00,
2013-01-09 03:38:00,29.7,27.1,30.38,ENE,68,0.0,0.0,90,0.00,CLR,,0.00,WeatherDisplay:10.37,2013-01-09 08:38:00,
2013-01-09 03:39:00,29.8,27.2,30.38,ENE,68,0.0,0.0,90,0.00,CLR,,0.00,WeatherDisplay:10.37,2013-01-09 08:39:00,
2013-01-09 03:41:00,31.0,28.7,30.38,ENE,68,0.0,0.0,91,0.00,CLR,,0.00,WeatherDisplay:10.37,2013-01-09 08:41:00,
2013-01-09 03:44:00,30.2,27.9,30.38,ENE,68,0.0,0.0,91,0.00,CLR,,0.00,WeatherDisplay:10.37,2013-01-09 08:44:00,
2013-01-09 03:45:00,31.1,28.8,30.38,ENE,68,0.0,0.0,91,0.00,CLR,,0.00,WeatherDisplay:10.37,2013-01-09 08:45:00,
2013-01-09 03:48:00,30.0,27.4,30.38,ENE,68,0.0,0.0,90,0.00,CLR,,0.00,WeatherDisplay:10.37,2013-01-09 08:48:00,
2013-01-09 03:49:00,30.8,28.2,30.38,ENE,68,0.0,0.0,90,0.00,CLR,,0.00,WeatherDisplay:10.37,2013-01-09 08:49:00,
2013-01-09 03:50:00,30.6,28.0,30.38,ENE,68,0.0,0.0,90,0.00,CLR,,0.00,WeatherDisplay:10.37,2013-01-09 08:50:00,
2013-01-09 03:53:00,30.4,27.8,30.38,ENE,68,0.0,0.0,90,0.00,CLR,,0.00,WeatherDisplay:10.37,2013-01-09 08:53:00,
2013-01-09 03:55:00,30.3,27.7,30.39,ENE,68,0.0,0.0,90,0.00,CLR,,0.00,WeatherDisplay:10.37,2013-01-09 08:55:00,
2013-01-09 03:57:00,30.6,28.0,30.39,ENE,68,0.0,0.0,90,0.00,CLR,,0.00,WeatherDisplay:10.37,2013-01-09 08:57:00,
2013-01-09 04:00:00,30.4,27.8,30.39,ENE,68,0.0,0.0,90,0.00,CLR,,0.00,WeatherDisplay:10.37,2013-01-09 09:00:00,
2013-01-09 04:01:00,30.3,27.7,30.39,ENE,68,0.0,0.0,90,0.00,CLR,,0.00,WeatherDisplay:10.37,2013-01-09 09:01:00,
2013-01-09 04:02:00,30.3,27.7,30.39,ENE,68,0.0,0.0,90,0.00,CLR,,0.00,WeatherDisplay:10.37,2013-01-09 09:02:00,
2013-01-09 04:06:00,30.9,28.6,30.39,ENE,68,0.0,0.0,91,0.00,CLR,,0.00,WeatherDisplay:10.37,2013-01-09 09:06:00,
2013-01-09 04:07:00,29.9,27.6,30.39,ENE,68,0.0,0.0,91,0.00,CLR,,0.00,WeatherDisplay:10.37,2013-01-09 09:07:00,
2013-01-09 04:08:00,29.6,27.3,30.39,ENE,68,0.0,0.0,91,0.00,CLR,,0.00,WeatherDisplay:10.37,2013-01-09 09:08:00,
2013-01-09 04:12:00,30.8,28.8,30.38,ENE,68,0.0,0.0,92,0.00,CLR,,0.00,WeatherDisplay:10.37,2013-01-09 09:12:00,
2013-01-09 04:13:00,29.4,27.4,30.38,ENE,68,0.0,0.0,92,0.00,CLR,,0.00,WeatherDisplay:10.37,2013-01-09 09:13:00,
2013-01-09 04:15:00,29.9,27.9,30.38,ENE,68,0.0,0.0,92,0.00,CLR,,0.00,WeatherDisplay:10.37,2013-01-09 09:15:00,
2013-01-09 04:18:00,30.2,28.2,30.38,ENE,68,0.0,0.0,92,0.00,CLR,,0.00,WeatherDisplay:10.37,2013-01-09 09:18:00,
2013-01-09 04:19:00,29.9,28.4,30.38,ENE,68,0.0,0.0,94,0.00,CLR,,0.00,WeatherDisplay:10.37,2013-01-09 09:19:00,
2013-01-09 04:20:00,30.6,29.3,30.38,ENE,68,0.0,0.0,95,0.00,CLR,,0.00,WeatherDisplay:10.37,2013-01-09 09:20:00,
2013-01-09 04:21:00,30.7,29.4,30.38,ENE,68,0.0,0.0,95,0.00,CLR,,0.00,WeatherDisplay:10.37,2013-01-09 09:21:00,
2013-01-09 04:23:00,30.8,29.8,30.38,ENE,68,0.0,0.0,96,0.00,CLR,,0.00,WeatherDisplay:10.37,2013-01-09 09:23:00,
2013-01-09 04:26:00,30.9,30.1,30.38,ENE,68,0.0,0.0,97,0.00,CLR,,0.00,WeatherDisplay:10.37,2013-01-09 09:26:00,
2013-01-09 04:27:00,31.0,30.2,30.38,ENE,68,0.0,0.0,97,0.00,CLR,,0.00,WeatherDisplay:10.37,2013-01-09 09:27:00,
2013-01-09 04:29:00,31.0,30.2,30.38,ENE,68,0.0,0.0,97,0.00,CLR,,0.00,WeatherDisplay:10.37,2013-01-09 09:29:00,
2013-01-09 04:32:00,31.3,30.3,30.38,ENE,68,0.0,0.0,96,0.00,CLR,,0.00,WeatherDisplay:10.37,2013-01-09 09:32:00,
2013-01-09 04:33:00,30.5,29.2,30.38,ENE,68,0.0,0.0,95,0.00,CLR,,0.00,WeatherDisplay:10.37,2013-01-09 09:33:00,
2013-01-09 04:34:00,32.3,31.0,30.38,ENE,68,0.0,0.0,95,0.00,CLR,,0.00,WeatherDisplay:10.37,2013-01-09 09:34:00,
2013-01-09 04:37:00,32.5,31.2,30.38,ENE,68,0.0,0.0,95,0.00,CLR,,0.00,WeatherDisplay:10.37,2013-01-09 09:37:00,
2013-01-09 04:38:00,31.4,30.1,30.38,ENE,68,0.0,0.0,95,0.00,CLR,,0.00,WeatherDisplay:10.37,2013-01-09 09:38:00,
2013-01-09 04:39:00,32.0,30.8,30.37,ENE,68,0.0,0.0,95,0.00,CLR,,0.00,WeatherDisplay:10.37,2013-01-09 09:39:00,
2013-01-09 04:41:00,31.1,29.8,30.37,ENE,68,0.0,0.0,95,0.00,CLR,,0.00,WeatherDisplay:10.37,2013-01-09 09:41:00,
2013-01-09 04:43:00,31.4,30.1,30.37,ENE,68,0.0,0.0,95,0.00,CLR,,0.00,WeatherDisplay:10.37,2013-01-09 09:43:00,
2013-01-09 04:44:00,31.4,29.9,30.37,ENE,68,0.0,0.0,94,0.00,CLR,,0.00,WeatherDisplay:10.37,2013-01-09 09:44:00,
2013-01-09 04:45:00,31.3,29.8,30.37,ENE,68,0.0,0.0,94,0.00,CLR,,0.00,WeatherDisplay:10.37,2013-01-09 09:45:00,
2013-01-09 04:46:00,32.1,30.6,30.37,ENE,68,0.0,0.0,94,0.00,CLR,,0.00,WeatherDisplay:10.37,2013-01-09 09:46:00,
2013-01-09 04:49:00,31.3,29.2,30.37,ENE,68,0.0,0.0,92,0.00,CLR,,0.00,WeatherDisplay:10.37,2013-01-09 09:49:00,
2013-01-09 04:50:00,31.1,29.0,30.37,ENE,68,0.0,0.0,92,0.00,CLR,,0.00,WeatherDisplay:10.37,2013-01-09 09:50:00,
2013-01-09 04:51:00,31.2,28.9,30.37,ENE,68,0.0,0.0,91,0.00,CLR,,0.00,WeatherDisplay:10.37,2013-01-09 09:51:00,
2013-01-09 04:52:00,31.2,28.9,30.37,ENE,68,0.0,0.0,91,0.00,CLR,,0.00,WeatherDisplay:10.37,2013-01-09 09:52:00,
2013-01-09 04:55:00,30.6,28.0,30.37,ENE,68,0.0,0.0,90,0.00,CLR,,0.00,WeatherDisplay:10.37,2013-01-09 09:55:00,
2013-01-09 04:57:00,30.6,28.3,30.37,ENE,68,0.0,0.0,91,0.00,CLR,,0.00,WeatherDisplay:10.37,2013-01-09 09:57:00,
2013-01-09 04:58:00,31.4,29.1,30.37,ENE,68,0.0,0.0,91,0.00,CLR,,0.00,WeatherDisplay:10.37,2013-01-09 09:58:00,
2013-01-09 05:01:00,31.4,29.1,30.37,ENE,68,0.0,0.0,91,0.00,CLR,,0.00,WeatherDisplay:10.37,2013-01-09 10:01:00,
2013-01-09 05:02:00,29.7,27.4,30.37,ENE,68,0.0,0.0,91,0.00,CLR,,0.00,WeatherDisplay:10.37,2013-01-09 10:02:00,
2013-01-09 05:04:00,30.6,28.2,30.37,ENE,68,0.0,0.0,91,0.00,CLR,,0.00,WeatherDisplay:10.37,2013-01-09 10:04:00,
2013-01-09 05:06:00,29.7,27.7,30.36,ENE,68,0.0,0.0,92,0.00,CLR,,0.00,WeatherDisplay:10.37,2013-01-09 10:06:00,
2013-01-09 05:07:00,30.2,28.2,30.36,ENE,68,0.0,0.0,92,0.00,CLR,,0.00,WeatherDisplay:10.37,2013-01-09 10:07:00,
2013-01-09 05:09:00,30.7,29.0,30.36,ENE,68,0.0,3.0,93,0.00,CLR,,0.00,WeatherDisplay:10.37,2013-01-09 10:09:00,
2013-01-09 05:10:00,30.4,29.4,30.36,NW,316,3.5,3.5,96,0.00,CLR,,0.00,WeatherDisplay:10.37,2013-01-09 10:10:00,
2013-01-09 05:12:00,31.0,30.2,30.36,NW,316,0.0,0.0,97,0.00,CLR,,0.00,WeatherDisplay:10.37,2013-01-09 10:12:00,
2013-01-09 05:14:00,31.1,30.6,30.36,WNW,282,0.0,0.0,98,0.00,CLR,,0.00,WeatherDisplay:10.37,2013-01-09 10:14:00,
2013-01-09 05:17:00,31.2,30.4,30.37,WNW,282,0.0,0.0,97,0.00,CLR,,0.00,WeatherDisplay:10.37,2013-01-09 10:17:00,
2013-01-09 05:18:00,31.0,30.2,30.36,WNW,282,0.0,0.0,97,0.00,CLR,,0.00,WeatherDisplay:10.37,2013-01-09 10:18:00,
2013-01-09 05:19:00,31.1,30.3,30.36,WNW,282,0.0,0.0,97,0.00,CLR,,0.00,WeatherDisplay:10.37,2013-01-09 10:19:00,
2013-01-09 05:24:00,31.5,30.7,30.36,WNW,282,0.0,0.0,97,0.00,CLR,,0.00,WeatherDisplay:10.37,2013-01-09 10:24:00,
2013-01-09 05:25:00,31.6,30.6,30.37,WNW,282,0.0,0.0,96,0.00,CLR,,0.00,WeatherDisplay:10.37,2013-01-09 10:25:00,
2013-01-09 05:27:00,31.6,30.6,30.37,WNW,282,0.0,0.0,96,0.00,CLR,,0.00,WeatherDisplay:10.37,2013-01-09 10:27:00,
2013-01-09 05:30:00,30.2,28.9,30.36,WNW,282,0.0,0.0,95,0.00,CLR,,0.00,WeatherDisplay:10.37,2013-01-09 10:30:00,
2013-01-09 05:32:00,30.3,28.8,30.36,WNW,282,0.0,0.0,94,0.00,CLR,,0.00,WeatherDisplay:10.37,2013-01-09 10:32:00,
2013-01-09 05:34:00,30.3,28.8,30.36,WNW,282,0.0,0.0,94,0.00,CLR,,0.00,WeatherDisplay:10.37,2013-01-09 10:34:00,
2013-01-09 05:35:00,30.1,28.6,30.37,WNW,282,0.0,0.0,94,0.00,CLR,,0.00,WeatherDisplay:10.37,2013-01-09 10:35:00,
2013-01-09 05:38:00,29.7,27.9,30.37,WNW,282,0.0,0.0,93,0.00,CLR,,0.00,WeatherDisplay:10.37,2013-01-09 10:38:00,
2013-01-09 05:39:00,30.0,28.2,30.37,WNW,282,0.0,0.0,93,0.00,CLR,,0.00,WeatherDisplay:10.37,2013-01-09 10:39:00,
2013-01-09 05:41:00,29.1,27.3,30.37,WNW,282,0.0,0.0,93,0.00,CLR,,0.00,WeatherDisplay:10.37,2013-01-09 10:41:00,
2013-01-09 05:42:00,29.1,27.3,30.37,WNW,282,0.0,0.0,93,0.00,CLR,,0.00,WeatherDisplay:10.37,2013-01-09 10:42:00,
2013-01-09 05:44:00,30.5,28.7,30.38,WNW,282,0.0,0.0,93,0.00,CLR,,0.00,WeatherDisplay:10.37,2013-01-09 10:44:00,
2013-01-09 05:46:00,30.5,28.7,30.37,WNW,282,0.0,0.0,93,0.00,CLR,,0.00,WeatherDisplay:10.37,2013-01-09 10:46:00,
2013-01-09 05:48:00,29.5,27.7,30.37,WNW,282,0.0,0.0,93,0.00,CLR,,0.00,WeatherDisplay:10.37,2013-01-09 10:48:00,
2013-01-09 05:50:00,29.4,27.9,30.37,WNW,282,0.0,0.0,94,0.00,CLR,,0.00,WeatherDisplay:10.37,2013-01-09 10:50:00,
2013-01-09 05:52:00,29.8,28.3,30.38,WNW,282,0.0,0.0,94,0.00,CLR,,0.00,WeatherDisplay:10.37,2013-01-09 10:52:00,
2013-01-09 05:53:00,29.8,28.3,30.37,WNW,282,0.0,0.0,94,0.00,CLR,,0.00,WeatherDisplay:10.37,2013-01-09 10:53:00,
2013-01-09 05:55:00,30.1,28.6,30.38,WNW,282,0.0,0.0,94,0.00,CLR,,0.00,WeatherDisplay:10.37,2013-01-09 10:55:00,
2013-01-09 05:57:00,28.6,27.4,30.37,WNW,282,0.0,0.0,95,0.00,CLR,,0.00,WeatherDisplay:10.37,2013-01-09 10:57:00,
2013-01-09 05:58:00,28.3,27.1,30.37,WNW,282,0.0,0.0,95,0.00,CLR,,0.00,WeatherDisplay:10.37,2013-01-09 10:58:00,
2013-01-09 06:00:00,28.8,27.5,30.38,WNW,282,0.0,0.0,95,0.00,CLR,,0.00,WeatherDisplay:10.37,2013-01-09 11:00:00,
2013-01-09 06:02:00,28.5,27.5,30.38,WNW,282,0.0,0.0,96,0.00,CLR,,0.00,WeatherDisplay:10.37,2013-01-09 11:02:00,
2013-01-09 06:04:00,28.6,27.6,30.38,WNW,282,0.0,0.0,96,0.00,CLR,,0.00,WeatherDisplay:10.37,2013-01-09 11:04:00,
2013-01-09 06:07:00,28.8,28.1,30.38,WNW,282,0.0,0.0,97,0.00,CLR,,0.00,WeatherDisplay:10.37,2013-01-09 11:07:00,
2013-01-09 06:08:00,29.0,28.0,30.38,WNW,282,0.0,0.0,96,0.00,CLR,,0.00,WeatherDisplay:10.37,2013-01-09 11:08:00,
2013-01-09 06:10:00,29.1,28.1,30.38,WNW,282,0.0,0.0,96,0.00,CLR,,0.00,WeatherDisplay:10.37,2013-01-09 11:10:00,
2013-01-09 06:12:00,29.7,29.0,30.38,WNW,282,0.0,0.0,97,0.00,CLR,,0.00,WeatherDisplay:10.37,2013-01-09 11:12:00,
2013-01-09 06:13:00,29.0,28.3,30.37,WNW,282,0.0,0.0,97,0.00,CLR,,0.00,WeatherDisplay:10.37,2013-01-09 11:13:00,
2013-01-09 06:14:00,29.0,28.5,30.37,WNW,282,0.0,0.0,98,0.00,CLR,,0.00,WeatherDisplay:10.37,2013-01-09 11:14:00,
2013-01-09 06:16:00,30.5,30.0,30.37,WNW,282,0.0,0.0,98,0.00,CLR,,0.00,WeatherDisplay:10.37,2013-01-09 11:16:00,
2013-01-09 06:18:00,31.0,30.5,30.37,WNW,282,0.0,0.0,98,0.00,CLR,,0.00,WeatherDisplay:10.37,2013-01-09 11:18:00,
2013-01-09 06:19:00,31.0,30.5,30.37,WNW,282,0.0,0.0,98,0.00,CLR,,0.00,WeatherDisplay:10.37,2013-01-09 11:19:00,
2013-01-09 06:20:00,31.1,30.6,30.37,WNW,282,0.0,0.0,98,0.00,CLR,,0.00,WeatherDisplay:10.37,2013-01-09 11:20:00,
2013-01-09 06:21:00,30.4,29.9,30.37,WNW,282,0.0,0.0,98,0.00,CLR,,0.00,WeatherDisplay:10.37,2013-01-09 11:21:00,
2013-01-09 06:24:00,30.7,30.2,30.37,WNW,282,0.0,0.0,98,0.00,CLR,,0.00,WeatherDisplay:10.37,2013-01-09 11:24:00,
2013-01-09 06:25:00,29.4,28.9,30.37,WNW,282,0.0,0.0,98,0.00,CLR,,0.00,WeatherDisplay:10.37,2013-01-09 11:25:00,
2013-01-09 06:26:00,29.4,28.9,30.37,WNW,282,0.0,0.0,98,0.00,CLR,,0.00,WeatherDisplay:10.37,2013-01-09 11:26:00,
2013-01-09 06:27:00,29.4,29.2,30.37,WNW,282,0.0,0.0,99,0.00,CLR,,0.00,WeatherDisplay:10.37,2013-01-09 11:27:00,
2013-01-09 06:30:00,30.3,30.3,30.38,WNW,282,0.0,0.0,100,0.00,,,0.00,WeatherDisplay:10.37,2013-01-09 11:30:00,
2013-01-09 06:32:00,30.0,30.0,30.38,WNW,282,0.0,0.0,100,0.00,,,0.00,WeatherDisplay:10.37,2013-01-09 11:32:00,
2013-01-09 06:33:00,29.6,29.6,30.38,WNW,282,0.0,0.0,100,0.00,,,0.00,WeatherDisplay:10.37,2013-01-09 11:33:00,
2013-01-09 06:35:00,30.4,30.2,30.38,WNW,282,0.0,0.0,99,0.00,,,0.00,WeatherDisplay:10.37,2013-01-09 11:35:00,
2013-01-09 06:38:00,30.4,29.9,30.38,WNW,282,0.0,0.0,98,0.00,CLR,,0.00,WeatherDisplay:10.37,2013-01-09 11:38:00,
2013-01-09 06:39:00,30.4,29.9,30.38,WNW,282,0.0,0.0,98,0.00,CLR,,0.00,WeatherDisplay:10.37,2013-01-09 11:39:00,
2013-01-09 06:40:00,30.4,29.9,30.38,WNW,282,0.0,0.0,98,0.00,CLR,,0.00,WeatherDisplay:10.37,2013-01-09 11:40:00,
2013-01-09 06:43:00,29.4,28.9,30.38,WNW,282,0.0,0.0,98,0.00,CLR,,0.00,WeatherDisplay:10.37,2013-01-09 11:43:00,
2013-01-09 06:45:00,30.2,29.7,30.38,WNW,282,0.0,0.0,98,0.00,CLR,,0.00,WeatherDisplay:10.37,2013-01-09 11:45:00,
2013-01-09 06:47:00,29.1,28.9,30.38,WNW,282,0.0,0.0,99,0.00,CLR,,0.00,WeatherDisplay:10.37,2013-01-09 11:47:00,
2013-01-09 06:48:00,29.2,29.2,30.38,WNW,282,0.0,0.0,100,0.00,,,0.00,WeatherDisplay:10.37,2013-01-09 11:48:00,
2013-01-09 06:51:00,28.9,28.9,30.38,WNW,282,0.0,0.0,100,0.00,,,0.00,WeatherDisplay:10.37,2013-01-09 11:51:00,
2013-01-09 06:52:00,28.9,28.9,30.38,WNW,282,0.0,0.0,100,0.00,,,0.00,WeatherDisplay:10.37,2013-01-09 11:52:00,
2013-01-09 06:54:00,29.2,29.2,30.38,WNW,282,0.0,0.0,100,0.00,,,0.00,WeatherDisplay:10.37,2013-01-09 11:54:00,
2013-01-09 06:57:00,30.1,30.1,30.38,WNW,282,0.0,0.0,100,0.00,,,0.00,WeatherDisplay:10.37,2013-01-09 11:57:00,
2013-01-09 06:59:00,30.1,30.1,30.38,West,270,3.5,0.0,100,0.00,,,0.00,WeatherDisplay:10.37,2013-01-09 11:59:00,
2013-01-09 07:01:00,30.1,30.1,30.38,West,270,0.0,0.0,100,0.00,,,0.00,WeatherDisplay:10.37,2013-01-09 12:01:00,
2013-01-09 07:04:00,29.1,29.1,30.38,West,270,0.0,0.0,100,0.00,,,0.00,WeatherDisplay:10.37,2013-01-09 12:04:00,
2013-01-09 07:06:00,29.7,29.7,30.38,West,270,0.0,0.0,100,0.00,,,0.00,WeatherDisplay:10.37,2013-01-09 12:06:00,
2013-01-09 07:08:00,29.3,29.3,30.38,West,270,0.0,0.0,100,0.00,,,0.00,WeatherDisplay:10.37,2013-01-09 12:08:00,
2013-01-09 07:09:00,29.7,29.7,30.38,West,270,0.0,0.0,100,0.00,,,0.00,WeatherDisplay:10.37,2013-01-09 12:09:00,
2013-01-09 07:11:00,29.7,29.7,30.37,West,270,0.0,0.0,100,0.00,,,0.00,WeatherDisplay:10.37,2013-01-09 12:11:00,
2013-01-09 07:12:00,29.5,29.5,30.37,West,270,0.0,0.0,100,0.00,,,0.00,WeatherDisplay:10.37,2013-01-09 12:12:00,
2013-01-09 07:14:00,29.8,29.8,30.38,West,270,0.0,0.0,100,0.00,,,0.00,WeatherDisplay:10.37,2013-01-09 12:14:00,
2013-01-09 07:17:00,30.4,30.4,30.38,West,270,0.0,0.0,100,0.00,,,0.00,WeatherDisplay:10.37,2013-01-09 12:17:00,
2013-01-09 07:19:00,30.6,30.6,30.38,West,270,0.0,0.0,100,0.00,,,0.00,WeatherDisplay:10.37,2013-01-09 12:19:00,
2013-01-09 07:20:00,30.5,30.5,30.38,West,270,0.0,0.0,100,0.00,,,0.00,WeatherDisplay:10.37,2013-01-09 12:20:00,
2013-01-09 07:23:00,30.6,30.6,30.39,West,270,0.0,0.0,100,0.00,,,0.00,WeatherDisplay:10.37,2013-01-09 12:23:00,
2013-01-09 07:25:00,31.0,31.0,30.38,West,270,0.0,0.0,100,0.00,,,0.00,WeatherDisplay:10.37,2013-01-09 12:25:00,
2013-01-09 07:26:00,31.0,31.0,30.38,West,270,0.0,0.0,100,0.00,,,0.00,WeatherDisplay:10.37,2013-01-09 12:26:00,
2013-01-09 07:30:00,30.5,30.5,30.39,West,270,0.0,0.0,100,0.00,,,0.00,WeatherDisplay:10.37,2013-01-09 12:30:00,
2013-01-09 07:31:00,29.6,29.6,30.39,West,270,0.0,0.0,100,0.00,,,0.00,WeatherDisplay:10.37,2013-01-09 12:31:00,
2013-01-09 07:32:00,30.4,30.4,30.39,West,270,0.0,0.0,100,0.00,,,0.00,WeatherDisplay:10.37,2013-01-09 12:32:00,
2013-01-09 07:33:00,30.4,30.4,30.39,West,270,0.0,0.0,100,0.00,,,0.00,WeatherDisplay:10.37,2013-01-09 12:33:00,
2013-01-09 07:36:00,30.4,30.4,30.39,West,270,0.0,0.0,100,0.00,,,0.00,WeatherDisplay:10.37,2013-01-09 12:36:00,
2013-01-09 07:37:00,30.2,30.2,30.39,West,270,0.0,0.0,100,0.00,,,0.00,WeatherDisplay:10.37,2013-01-09 12:37:00,
2013-01-09 07:39:00,30.3,30.3,30.39,West,270,0.0,0.0,100,0.00,,,0.00,WeatherDisplay:10.37,2013-01-09 12:39:00,
2013-01-09 07:41:00,30.2,30.2,30.40,West,270,0.0,0.0,100,0.00,,,0.00,WeatherDisplay:10.37,2013-01-09 12:41:00,
2013-01-09 07:42:00,30.1,30.1,30.40,West,270,0.0,0.0,100,0.00,,,0.00,WeatherDisplay:10.37,2013-01-09 12:42:00,
2013-01-09 07:43:00,30.4,30.4,30.40,West,270,0.0,0.0,100,0.00,,,0.00,WeatherDisplay:10.37,2013-01-09 12:43:00,
2013-01-09 07:45:00,30.3,30.3,30.40,West,270,0.0,0.0,100,0.00,,,0.00,WeatherDisplay:10.37,2013-01-09 12:45:00,
2013-01-09 07:48:00,30.8,30.8,30.40,West,270,0.0,0.0,100,0.00,,,0.00,WeatherDisplay:10.37,2013-01-09 12:48:00,
2013-01-09 07:49:00,30.5,30.5,30.40,West,270,0.0,0.0,100,0.00,,,0.00,WeatherDisplay:10.37,2013-01-09 12:49:00,
2013-01-09 07:51:00,30.5,30.5,30.40,West,270,0.0,0.0,100,0.00,,,0.00,WeatherDisplay:10.37,2013-01-09 12:51:00,
2013-01-09 07:54:00,30.4,29.9,30.40,West,270,0.0,0.0,98,0.00,,,0.00,WeatherDisplay:10.37,2013-01-09 12:54:00,
2013-01-09 07:56:00,30.4,29.9,30.40,West,270,0.0,0.0,98,0.00,CLR,,0.00,WeatherDisplay:10.37,2013-01-09 12:56:00,
2013-01-09 07:59:00,30.2,29.7,30.40,West,270,0.0,0.0,98,0.00,CLR,,0.00,WeatherDisplay:10.37,2013-01-09 12:59:00,
2013-01-09 08:01:00,30.8,30.3,30.39,West,270,0.0,0.0,98,0.00,CLR,,0.00,WeatherDisplay:10.37,2013-01-09 13:01:00,
2013-01-09 08:02:00,30.8,30.3,30.39,West,270,0.0,0.0,98,0.00,CLR,,0.00,WeatherDisplay:10.37,2013-01-09 13:02:00,
2013-01-09 08:06:00,30.4,30.2,30.39,West,270,0.0,0.0,99,0.00,,,0.00,WeatherDisplay:10.37,2013-01-09 13:06:00,
2013-01-09 08:07:00,30.2,30.0,30.39,West,270,0.0,0.0,99,0.00,,,0.00,WeatherDisplay:10.37,2013-01-09 13:07:00,
2013-01-09 08:09:00,30.5,30.3,30.39,West,270,0.0,0.0,99,0.00,,,0.00,WeatherDisplay:10.37,2013-01-09 13:09:00,
2013-01-09 08:12:00,30.6,30.1,30.40,West,270,0.0,0.0,98,0.00,CLR,,0.00,WeatherDisplay:10.37,2013-01-09 13:12:00,
2013-01-09 08:13:00,30.9,30.4,30.40,West,270,0.0,0.0,98,0.00,CLR,,0.00,WeatherDisplay:10.37,2013-01-09 13:13:00,
2013-01-09 08:15:00,31.3,30.5,30.40,West,270,0.0,0.0,97,0.00,CLR,,0.00,WeatherDisplay:10.37,2013-01-09 13:15:00,
2013-01-09 08:19:00,31.3,29.8,30.40,West,270,0.0,0.0,94,0.00,CLR,,0.00,WeatherDisplay:10.37,2013-01-09 13:19:00,
2013-01-09 08:22:00,31.9,30.1,30.40,West,270,0.0,0.0,93,0.00,CLR,,0.00,WeatherDisplay:10.37,2013-01-09 13:22:00,
2013-01-09 08:24:00,32.3,30.2,30.41,West,270,0.0,0.0,92,0.00,CLR,,0.00,WeatherDisplay:10.37,2013-01-09 13:24:00,
2013-01-09 08:25:00,32.4,30.1,30.41,West,270,0.0,0.0,91,0.00,CLR,,0.00,WeatherDisplay:10.37,2013-01-09 13:25:00,
2013-01-09 08:28:00,32.6,29.7,30.41,West,270,0.0,0.0,89,0.00,CLR,,0.00,WeatherDisplay:10.37,2013-01-09 13:28:00,
2013-01-09 08:30:00,33.3,29.6,30.41,West,270,0.0,0.0,86,0.00,CLR,,0.00,WeatherDisplay:10.37,2013-01-09 13:30:00,
2013-01-09 08:32:00,34.1,29.8,30.41,West,270,0.0,0.0,84,0.00,CLR,,0.00,WeatherDisplay:10.37,2013-01-09 13:32:00,
2013-01-09 08:34:00,34.1,29.8,30.41,West,270,0.0,0.0,84,0.00,CLR,,0.00,WeatherDisplay:10.37,2013-01-09 13:34:00,
2013-01-09 08:36:00,34.0,29.1,30.41,WSW,243,4.6,4.6,82,0.00,CLR,,0.00,WeatherDisplay:10.37,2013-01-09 13:36:00,
2013-01-09 08:37:00,33.9,29.3,30.41,WSW,243,4.6,0.0,83,0.00,CLR,,0.00,WeatherDisplay:10.37,2013-01-09 13:37:00,
2013-01-09 08:38:00,34.0,29.7,30.41,WNW,295,2.9,3.5,84,0.00,CLR,,0.00,WeatherDisplay:10.37,2013-01-09 13:38:00,
2013-01-09 08:42:00,33.9,29.6,30.41,WNW,295,0.0,0.0,84,0.00,CLR,,0.00,WeatherDisplay:10.37,2013-01-09 13:42:00,
2013-01-09 08:43:00,33.9,29.6,30.41,WNW,295,0.0,0.0,84,0.00,CLR,,0.00,WeatherDisplay:10.37,2013-01-09 13:43:00,
2013-01-09 08:44:00,33.9,29.6,30.41,WNW,295,0.0,0.0,84,0.00,CLR,,0.00,WeatherDisplay:10.37,2013-01-09 13:44:00,
2013-01-09 08:47:00,33.2,29.5,30.42,WNW,295,0.0,0.0,86,0.00,CLR,,0.00,WeatherDisplay:10.37,2013-01-09 13:47:00,
2013-01-09 08:48:00,33.2,29.8,30.41,WNW,295,0.0,0.0,87,0.00,CLR,,0.00,WeatherDisplay:10.37,2013-01-09 13:48:00,
2013-01-09 08:52:00,32.2,29.0,30.41,WNW,295,0.0,0.0,88,0.00,CLR,,0.00,WeatherDisplay:10.37,2013-01-09 13:52:00,
2013-01-09 08:54:00,35.0,31.5,30.41,WNW,295,0.0,0.0,87,0.00,CLR,,0.00,WeatherDisplay:10.37,2013-01-09 13:54:00,
2013-01-09 08:57:00,35.1,31.6,30.41,WNW,295,0.0,0.0,87,0.00,CLR,,0.00,WeatherDisplay:10.37,2013-01-09 13:57:00,
2013-01-09 08:59:00,35.3,31.8,30.41,WNW,295,0.0,0.0,87,0.00,CLR,,0.00,WeatherDisplay:10.37,2013-01-09 13:59:00,
2013-01-09 09:02:00,36.2,32.7,30.41,WNW,295,0.0,0.0,87,0.00,CLR,,0.00,WeatherDisplay:10.37,2013-01-09 14:02:00,
2013-01-09 09:03:00,36.3,32.8,30.41,WNW,295,0.0,0.0,87,0.00,CLR,,0.00,WeatherDisplay:10.37,2013-01-09 14:03:00,
2013-01-09 09:04:00,36.5,32.7,30.41,WNW,295,0.0,0.0,86,0.00,CLR,,0.00,WeatherDisplay:10.37,2013-01-09 14:04:00,
2013-01-09 09:07:00,37.8,33.7,30.41,WNW,295,0.0,0.0,85,0.00,CLR,,0.00,WeatherDisplay:10.37,2013-01-09 14:07:00,
2013-01-09 09:08:00,37.9,33.8,30.41,WNW,295,0.0,0.0,85,0.00,CLR,,0.00,WeatherDisplay:10.37,2013-01-09 14:08:00,
2013-01-09 09:09:00,38.3,33.9,30.42,WNW,295,0.0,0.0,84,0.00,CLR,,0.00,WeatherDisplay:10.37,2013-01-09 14:09:00,
2013-01-09 09:10:00,38.7,34.0,30.42,WNW,295,0.0,0.0,83,0.00,CLR,,0.00,WeatherDisplay:10.37,2013-01-09 14:10:00,
2013-01-09 09:13:00,40.1,32.8,30.42,WNW,295,0.0,0.0,75,0.00,CLR,,0.00,WeatherDisplay:10.37,2013-01-09 14:13:00,
2013-01-09 09:14:00,40.6,33.0,30.42,WNW,295,0.0,0.0,74,0.00,CLR,,0.00,WeatherDisplay:10.37,2013-01-09 14:14:00,
2013-01-09 09:16:00,42.0,34.3,30.42,WNW,295,0.0,0.0,74,0.00,CLR,,0.00,WeatherDisplay:10.37,2013-01-09 14:16:00,
2013-01-09 09:19:00,43.2,34.8,30.42,WNW,295,0.0,0.0,72,0.00,CLR,,0.00,WeatherDisplay:10.37,2013-01-09 14:19:00,
2013-01-09 09:22:00,45.0,33.9,30.42,WNW,295,0.0,0.0,65,0.00,CLR,,0.00,WeatherDisplay:10.37,2013-01-09 14:22:00,
2013-01-09 09:24:00,46.1,32.6,30.42,WNW,295,0.0,0.0,59,0.00,CLR,,0.00,WeatherDisplay:10.37,2013-01-09 14:24:00,
2013-01-09 09:25:00,46.5,25.7,30.42,WNW,295,0.0,0.0,44,0.00,CLR,,0.00,WeatherDisplay:10.37,2013-01-09 14:25:00,
2013-01-09 09:28:00,47.5,28.8,30.42,WNW,295,0.0,0.0,48,0.00,CLR,,0.00,WeatherDisplay:10.37,2013-01-09 14:28:00,
2013-01-09 09:30:00,48.4,29.6,30.42,WNW,295,0.0,0.0,48,0.00,CLR,,0.00,WeatherDisplay:10.37,2013-01-09 14:30:00,
2013-01-09 09:33:00,47.8,24.6,30.42,WNW,295,0.0,0.0,40,0.00,CLR,,0.00,WeatherDisplay:10.37,2013-01-09 14:33:00,
2013-01-09 09:34:00,47.7,25.1,30.42,WNW,295,0.0,0.0,41,0.00,CLR,,0.00,WeatherDisplay:10.37,2013-01-09 14:34:00,
2013-01-09 09:35:00,47.4,25.4,30.42,WNW,295,0.0,0.0,42,0.00,CLR,,0.00,WeatherDisplay:10.37,2013-01-09 14:35:00,
2013-01-09 09:37:00,47.1,25.2,30.42,WNW,295,0.0,0.0,42,0.00,CLR,,0.00,WeatherDisplay:10.37,2013-01-09 14:37:00,
2013-01-09 09:39:00,46.7,23.6,30.42,WNW,295,0.0,0.0,40,0.00,CLR,,0.00,WeatherDisplay:10.37,2013-01-09 14:39:00,
2013-01-09 09:41:00,46.0,23.6,30.42,WNW,295,0.0,0.0,41,0.00,CLR,,0.00,WeatherDisplay:10.37,2013-01-09 14:41:00,
2013-01-09 09:42:00,45.9,24.1,30.43,WNW,295,0.0,0.0,42,0.00,CLR,,0.00,WeatherDisplay:10.37,2013-01-09 14:42:00,
2013-01-09 09:44:00,44.9,23.2,30.43,WNW,295,0.0,0.0,42,0.00,CLR,,0.00,WeatherDisplay:10.37,2013-01-09 14:44:00,
2013-01-09 09:47:00,44.4,24.4,30.43,WNW,295,0.0,0.0,45,0.00,CLR,,0.00,WeatherDisplay:10.37,2013-01-09 14:47:00,
2013-01-09 09:49:00,44.4,24.9,30.43,WNW,295,0.0,0.0,46,0.00,CLR,,0.00,WeatherDisplay:10.37,2013-01-09 14:49:00,
2013-01-09 09:50:00,44.5,25.5,30.42,WNW,295,0.0,0.0,47,0.00,CLR,,0.00,WeatherDisplay:10.37,2013-01-09 14:50:00,
2013-01-09 09:52:00,44.7,25.7,30.42,WNW,295,0.0,0.0,47,0.00,CLR,,0.00,WeatherDisplay:10.37,2013-01-09 14:52:00,
2013-01-09 09:54:00,45.2,26.1,30.42,WNW,295,0.0,0.0,47,0.00,CLR,,0.00,WeatherDisplay:10.37,2013-01-09 14:54:00,
2013-01-09 09:55:00,45.4,27.3,30.42,WNW,295,0.0,0.0,49,0.00,CLR,,0.00,WeatherDisplay:10.37,2013-01-09 14:55:00,
2013-01-09 09:56:00,45.5,27.4,30.42,WNW,295,0.0,0.0,49,0.00,CLR,,0.00,WeatherDisplay:10.37,2013-01-09 14:56:00,
2013-01-09 09:59:00,46.2,28.6,30.42,West,271,5.8,0.0,50,0.00,CLR,,0.00,WeatherDisplay:10.37,2013-01-09 14:59:00,
2013-01-09 10:01:00,46.7,31.4,30.42,NW,309,5.7,5.7,55,0.00,CLR,,0.00,WeatherDisplay:10.37,2013-01-09 15:01:00,
2013-01-09 10:02:00,46.9,30.2,30.42,WNW,291,8.1,8.1,52,0.00,CLR,,0.00,WeatherDisplay:10.37,2013-01-09 15:02:00,
2013-01-09 10:05:00,46.8,30.1,30.42,WNW,299,6.9,6.9,52,0.00,CLR,,0.00,WeatherDisplay:10.37,2013-01-09 15:05:00,
2013-01-09 10:06:00,46.7,30.5,30.42,NW,306,9.2,9.2,53,0.00,CLR,,0.00,WeatherDisplay:10.37,2013-01-09 15:06:00,
2013-01-09 10:08:00,46.6,30.8,30.42,NNE,16,8.1,8.1,54,0.00,CLR,,0.00,WeatherDisplay:10.37,2013-01-09 15:08:00,
2013-01-09 10:09:00,46.7,30.9,30.42,NW,318,5.0,9.0,54,0.00,CLR,,0.00,WeatherDisplay:10.37,2013-01-09 15:09:00,
2013-01-09 10:10:00,46.6,30.8,30.42,North,349,6.9,6.9,54,0.00,CLR,,0.00,WeatherDisplay:10.37,2013-01-09 15:10:00,
2013-01-09 10:11:00,46.4,30.2,30.42,North,360,8.1,8.1,53,0.00,CLR,,0.00,WeatherDisplay:10.37,2013-01-09 15:11:00,
2013-01-09 10:13:00,46.2,30.5,30.42,NNW,343,6.9,6.9,54,0.00,CLR,,0.00,WeatherDisplay:10.37,2013-01-09 15:13:00,
2013-01-09 10:14:00,46.1,30.4,30.42,NW,311,6.9,6.9,54,0.00,CLR,,0.00,WeatherDisplay:10.37,2013-01-09 15:14:00,
2013-01-09 10:15:00,46.2,30.5,30.42,NW,305,6.9,6.9,54,0.00,CLR,,0.00,WeatherDisplay:10.37,2013-01-09 15:15:00,
2013-01-09 10:18:00,46.9,29.2,30.42,WNW,299,5.9,5.9,50,0.00,CLR,,0.00,WeatherDisplay:10.37,2013-01-09 15:18:00,
2013-01-09 10:19:00,47.0,28.3,30.42,NNW,330,6.2,6.2,48,0.00,CLR,,0.00,WeatherDisplay:10.37,2013-01-09 15:19:00,
2013-01-09 10:20:00,47.2,29.0,30.42,North,359,5.8,5.8,49,0.00,CLR,,0.00,WeatherDisplay:10.37,2013-01-09 15:20:00,
2013-01-09 10:21:00,47.3,29.1,30.42,WNW,302,5.8,5.8,49,0.00,CLR,,0.00,WeatherDisplay:10.37,2013-01-09 15:21:00,
2013-01-09 10:24:00,47.6,27.9,30.42,NW,319,2.0,7.0,46,0.00,CLR,,0.00,WeatherDisplay:10.37,2013-01-09 15:24:00,
2013-01-09 10:25:00,47.8,27.5,30.42,WNW,289,3.5,0.0,45,0.00,CLR,,0.00,WeatherDisplay:10.37,2013-01-09 15:25:00,
2013-01-09 10:28:00,47.7,27.4,30.42,NW,318,7.1,7.1,45,0.00,CLR,,0.00,WeatherDisplay:10.37,2013-01-09 15:28:00,
2013-01-09 10:29:00,47.8,28.0,30.42,NW,314,5.0,9.0,46,0.00,CLR,,0.00,WeatherDisplay:10.37,2013-01-09 15:29:00,
2013-01-09 10:30:00,48.0,28.2,30.42,NW,322,5.8,5.8,46,0.00,CLR,,0.00,WeatherDisplay:10.37,2013-01-09 15:30:00,
2013-01-09 10:32:00,48.2,27.8,30.42,NW,309,4.6,4.6,45,0.00,CLR,,0.00,WeatherDisplay:10.37,2013-01-09 15:32:00,
2013-01-09 10:34:00,48.3,28.5,30.42,NW,309,4.6,0.0,46,0.00,CLR,,0.00,WeatherDisplay:10.37,2013-01-09 15:34:00,
2013-01-09 10:35:00,48.3,28.5,30.42,NNW,328,5.0,5.0,46,0.00,CLR,,0.00,WeatherDisplay:10.37,2013-01-09 15:35:00,
2013-01-09 10:36:00,48.4,28.5,30.42,WNW,298,5.8,5.8,46,0.00,CLR,,0.00,WeatherDisplay:10.37,2013-01-09 15:36:00,
2013-01-09 10:39:00,48.4,28.5,30.41,NW,323,0.0,6.0,46,0.00,CLR,,0.00,WeatherDisplay:10.37,2013-01-09 15:39:00,
2013-01-09 10:40:00,48.4,28.0,30.41,North,360,4.6,4.6,45,0.00,CLR,,0.00,WeatherDisplay:10.37,2013-01-09 15:40:00,
2013-01-09 10:42:00,48.6,27.6,30.41,North,360,0.0,0.0,44,0.00,CLR,,0.00,WeatherDisplay:10.37,2013-01-09 15:42:00,
2013-01-09 10:44:00,49.0,28.0,30.41,North,4,4.6,0.0,44,0.00,CLR,,0.00,WeatherDisplay:10.37,2013-01-09 15:44:00,
2013-01-09 10:45:00,48.8,27.8,30.41,North,4,4.6,0.0,44,0.00,CLR,,0.00,WeatherDisplay:10.37,2013-01-09 15:45:00,
2013-01-09 10:46:00,49.2,28.7,30.41,North,4,0.0,0.0,45,0.00,CLR,,0.00,WeatherDisplay:10.37,2013-01-09 15:46:00,
2013-01-09 10:48:00,49.3,27.7,30.41,North,4,0.0,0.0,43,0.00,CLR,,0.00,WeatherDisplay:10.37,2013-01-09 15:48:00,
2013-01-09 10:50:00,49.4,28.4,30.41,North,4,0.0,0.0,44,0.00,CLR,,0.00,WeatherDisplay:10.37,2013-01-09 15:50:00,
2013-01-09 10:52:00,49.5,28.5,30.41,North,4,0.0,0.0,44,0.00,CLR,,0.00,WeatherDisplay:10.37,2013-01-09 15:52:00,
2013-01-09 10:54:00,49.7,28.6,30.41,North,4,0.0,0.0,44,0.00,CLR,,0.00,WeatherDisplay:10.37,2013-01-09 15:54:00,
2013-01-09 10:56:00,49.9,28.8,30.41,North,4,0.0,0.0,44,0.00,CLR,,0.00,WeatherDisplay:10.37,2013-01-09 15:56:00,
2013-01-09 10:57:00,49.8,28.2,30.41,North,4,0.0,0.0,43,0.00,CLR,,0.00,WeatherDisplay:10.37,2013-01-09 15:57:00,
2013-01-09 10:59:00,49.9,28.3,30.40,North,4,0.0,0.0,43,0.00,CLR,,0.00,WeatherDisplay:10.37,2013-01-09 15:59:00,
2013-01-09 11:03:00,50.1,27.9,30.40,North,4,0.0,0.0,42,0.00,CLR,,0.00,WeatherDisplay:10.37,2013-01-09 16:03:00,
2013-01-09 11:04:00,50.3,28.1,30.40,North,4,0.0,0.0,42,0.00,CLR,,0.00,WeatherDisplay:10.37,2013-01-09 16:04:00,
2013-01-09 11:06:00,50.6,27.7,30.40,North,4,0.0,0.0,41,0.00,CLR,,0.00,WeatherDisplay:10.37,2013-01-09 16:06:00,
2013-01-09 11:08:00,50.2,27.4,30.40,North,4,0.0,0.0,41,0.00,CLR,,0.00,WeatherDisplay:10.37,2013-01-09 16:08:00,
2013-01-09 11:09:00,50.4,27.6,30.40,North,4,0.0,0.0,41,0.00,CLR,,0.00,WeatherDisplay:10.37,2013-01-09 16:09:00,
2013-01-09 11:12:00,50.7,27.2,30.40,North,4,0.0,0.0,40,0.00,CLR,,0.00,WeatherDisplay:10.37,2013-01-09 16:12:00,
2013-01-09 11:14:00,50.4,27.0,30.40,North,4,0.0,0.0,40,0.00,CLR,,0.00,WeatherDisplay:10.37,2013-01-09 16:14:00,
2013-01-09 11:15:00,50.5,27.0,30.40,NW,326,4.2,4.2,40,0.00,CLR,,0.00,WeatherDisplay:10.37,2013-01-09 16:15:00,
2013-01-09 11:16:00,50.2,27.4,30.40,NNW,328,4.6,4.6,41,0.00,CLR,,0.00,WeatherDisplay:10.37,2013-01-09 16:16:00,
2013-01-09 11:18:00,50.4,27.6,30.40,NNW,330,5.8,5.8,41,0.00,CLR,,0.00,WeatherDisplay:10.37,2013-01-09 16:18:00,
2013-01-09 11:20:00,50.4,27.6,30.40,NNW,330,0.0,0.0,41,0.00,CLR,,0.00,WeatherDisplay:10.37,2013-01-09 16:20:00,
2013-01-09 11:21:00,50.2,27.4,30.40,NNW,330,0.0,0.0,41,0.00,CLR,,0.00,WeatherDisplay:10.37,2013-01-09 16:21:00,
2013-01-09 11:22:00,50.6,27.1,30.39,NNW,330,0.0,0.0,40,0.00,CLR,,0.00,WeatherDisplay:10.37,2013-01-09 16:22:00,
2013-01-09 11:23:00,50.5,27.0,30.39,NNW,330,0.0,0.0,40,0.00,CLR,,0.00,WeatherDisplay:10.37,2013-01-09 16:23:00,
2013-01-09 11:25:00,51.0,27.5,30.39,NNW,330,0.0,0.0,40,0.00,CLR,,0.00,WeatherDisplay:10.37,2013-01-09 16:25:00,
2013-01-09 11:26:00,50.9,27.4,30.39,NNW,330,0.0,0.0,40,0.00,CLR,,0.00,WeatherDisplay:10.37,2013-01-09 16:26:00,
2013-01-09 11:29:00,51.0,26.9,30.39,NNW,330,0.0,0.0,39,0.00,CLR,,0.00,WeatherDisplay:10.37,2013-01-09 16:29:00,
2013-01-09 11:31:00,50.9,26.2,30.39,NNW,330,0.0,0.0,38,0.00,CLR,,0.00,WeatherDisplay:10.37,2013-01-09 16:31:00,
2013-01-09 11:34:00,51.3,26.5,30.39,NNW,330,0.0,0.0,38,0.00,CLR,,0.00,WeatherDisplay:10.37,2013-01-09 16:34:00,
2013-01-09 11:37:00,51.7,26.9,30.39,NNW,330,0.0,0.0,38,0.00,CLR,,0.00,WeatherDisplay:10.37,2013-01-09 16:37:00,
2013-01-09 11:38:00,51.3,26.5,30.39,NNW,330,0.0,0.0,38,0.00,CLR,,0.00,WeatherDisplay:10.37,2013-01-09 16:38:00,
2013-01-09 11:39:00,52.1,27.2,30.39,NNW,330,0.0,0.0,38,0.00,CLR,,0.00,WeatherDisplay:10.37,2013-01-09 16:39:00,
2013-01-09 11:44:00,51.7,26.2,30.38,NNW,330,0.0,0.0,37,0.00,CLR,,0.00,WeatherDisplay:10.37,2013-01-09 16:44:00,
2013-01-09 11:45:00,51.9,26.4,30.38,NNW,330,0.0,0.0,37,0.00,CLR,,0.00,WeatherDisplay:10.37,2013-01-09 16:45:00,
2013-01-09 11:46:00,52.0,25.8,30.38,NNW,330,0.0,0.0,36,0.00,CLR,,0.00,WeatherDisplay:10.37,2013-01-09 16:46:00,
2013-01-09 11:49:00,52.1,25.9,30.38,NNW,330,0.0,0.0,36,0.00,CLR,,0.00,WeatherDisplay:10.37,2013-01-09 16:49:00,
2013-01-09 11:50:00,52.3,26.1,30.38,NNW,330,0.0,0.0,36,0.00,CLR,,0.00,WeatherDisplay:10.37,2013-01-09 16:50:00,
2013-01-09 11:51:00,52.2,25.3,30.38,NNW,330,0.0,0.0,35,0.00,CLR,,0.00,WeatherDisplay:10.37,2013-01-09 16:51:00,
2013-01-09 11:56:00,52.2,25.3,30.38,NNW,330,0.0,0.0,35,0.00,CLR,,0.00,WeatherDisplay:10.37,2013-01-09 16:56:00,
2013-01-09 11:57:00,52.3,25.4,30.38,NNW,330,0.0,0.0,35,0.00,CLR,,0.00,WeatherDisplay:10.37,2013-01-09 16:57:00,
2013-01-09 12:01:00,53.0,26.7,30.37,NNW,330,0.0,0.0,36,0.00,CLR,,0.00,WeatherDisplay:10.37,2013-01-09 17:01:00,
2013-01-09 12:02:00,52.6,25.7,30.37,NNW,330,0.0,0.0,35,0.00,CLR,,0.00,WeatherDisplay:10.37,2013-01-09 17:02:00,
2013-01-09 12:04:00,52.5,25.6,30.37,NNW,330,0.0,0.0,35,0.00,CLR,,0.00,WeatherDisplay:10.37,2013-01-09 17:04:00,
2013-01-09 12:08:00,52.2,26.0,30.37,NW,308,5.8,5.8,36,0.00,CLR,,0.00,WeatherDisplay:10.37,2013-01-09 17:08:00,
2013-01-09 12:09:00,52.4,26.2,30.37,NW,320,1.0,6.0,36,0.00,CLR,,0.00,WeatherDisplay:10.37,2013-01-09 17:09:00,
2013-01-09 12:13:00,52.8,25.9,30.37,NW,308,0.0,0.0,35,0.00,CLR,,0.00,WeatherDisplay:10.37,2013-01-09 17:13:00,
2013-01-09 12:14:00,52.9,26.0,30.37,NW,310,0.0,0.0,35,0.00,CLR,,0.00,WeatherDisplay:10.37,2013-01-09 17:14:00,
2013-01-09 12:16:00,53.4,25.7,30.37,NW,308,0.0,0.0,34,0.00,CLR,,0.00,WeatherDisplay:10.37,2013-01-09 17:16:00,
2013-01-09 12:19:00,53.7,25.2,30.36,NW,308,0.0,0.0,33,0.00,CLR,,0.00,WeatherDisplay:10.37,2013-01-09 17:19:00,
2013-01-09 12:20:00,54.1,25.6,30.36,NW,308,0.0,0.0,33,0.00,CLR,,0.00,WeatherDisplay:10.37,2013-01-09 17:20:00,
2013-01-09 12:21:00,54.7,24.6,30.36,NW,308,0.0,0.0,31,0.00,CLR,,0.00,WeatherDisplay:10.37,2013-01-09 17:21:00,
2013-01-09 12:22:00,54.8,24.7,30.36,NW,308,0.0,0.0,31,0.00,CLR,,0.00,WeatherDisplay:10.37,2013-01-09 17:22:00,
2013-01-09 12:25:00,55.5,24.5,30.36,NW,308,0.0,0.0,30,0.00,CLR,,0.00,WeatherDisplay:10.37,2013-01-09 17:25:00,
2013-01-09 12:26:00,55.5,24.5,30.36,NW,308,0.0,0.0,30,0.00,CLR,,0.00,WeatherDisplay:10.37,2013-01-09 17:26:00,
2013-01-09 12:28:00,55.7,24.7,30.36,NW,308,0.0,0.0,30,0.00,CLR,,0.00,WeatherDisplay:10.37,2013-01-09 17:28:00,
2013-01-09 12:30:00,55.5,24.5,30.36,NW,308,0.0,0.0,30,0.00,CLR,,0.00,WeatherDisplay:10.37,2013-01-09 17:30:00,
2013-01-09 12:31:00,55.1,24.2,30.36,NW,308,0.0,0.0,30,0.00,CLR,,0.00,WeatherDisplay:10.37,2013-01-09 17:31:00,
2013-01-09 12:32:00,55.0,24.9,30.36,NW,308,0.0,0.0,31,0.00,CLR,,0.00,WeatherDisplay:10.37,2013-01-09 17:32:00,
2013-01-09 12:33:00,54.8,25.5,30.36,NW,308,0.0,0.0,32,0.00,CLR,,0.00,WeatherDisplay:10.37,2013-01-09 17:33:00,
2013-01-09 12:36:00,54.8,25.5,30.36,NW,308,0.0,0.0,32,0.00,CLR,,0.00,WeatherDisplay:10.37,2013-01-09 17:36:00,
2013-01-09 12:38:00,54.8,25.5,30.36,NW,308,0.0,0.0,32,0.00,CLR,,0.00,WeatherDisplay:10.37,2013-01-09 17:38:00,
2013-01-09 12:40:00,54.7,25.4,30.36,NW,308,0.0,0.0,32,0.00,CLR,,0.00,WeatherDisplay:10.37,2013-01-09 17:40:00,
2013-01-09 12:41:00,54.7,25.4,30.36,NW,308,0.0,0.0,32,0.00,CLR,,0.00,WeatherDisplay:10.37,2013-01-09 17:41:00,
2013-01-09 12:43:00,54.6,25.3,30.36,NW,308,0.0,0.0,32,0.00,CLR,,0.00,WeatherDisplay:10.37,2013-01-09 17:43:00,
2013-01-09 12:46:00,54.4,25.9,30.36,NW,308,0.0,0.0,33,0.00,CLR,,0.00,WeatherDisplay:10.37,2013-01-09 17:46:00,
2013-01-09 12:47:00,54.8,25.5,30.36,NW,308,0.0,0.0,32,0.00,CLR,,0.00,WeatherDisplay:10.37,2013-01-09 17:47:00,
2013-01-09 12:50:00,54.8,25.5,30.36,NW,308,0.0,0.0,32,0.00,CLR,,0.00,WeatherDisplay:10.37,2013-01-09 17:50:00,
2013-01-09 12:52:00,54.5,26.0,30.36,NW,308,0.0,0.0,33,0.00,CLR,,0.00,WeatherDisplay:10.37,2013-01-09 17:52:00,
2013-01-09 12:53:00,54.5,25.2,30.35,NW,308,0.0,0.0,32,0.00,CLR,,0.00,WeatherDisplay:10.37,2013-01-09 17:53:00,
2013-01-09 12:57:00,54.8,25.5,30.36,NW,308,0.0,0.0,32,0.00,CLR,,0.00,WeatherDisplay:10.37,2013-01-09 17:57:00,
2013-01-09 12:58:00,55.0,25.6,30.36,NW,308,0.0,0.0,32,0.00,CLR,,0.00,WeatherDisplay:10.37,2013-01-09 17:58:00,
2013-01-09 12:59:00,55.1,25.7,30.36,NW,308,0.0,0.0,32,0.00,CLR,,0.00,WeatherDisplay:10.37,2013-01-09 17:59:00,
2013-01-09 13:02:00,55.3,25.1,30.36,NW,308,0.0,0.0,31,0.00,CLR,,0.00,WeatherDisplay:10.37,2013-01-09 18:02:00,
2013-01-09 13:03:00,55.4,25.2,30.36,NW,308,0.0,0.0,31,0.00,CLR,,0.00,WeatherDisplay:10.37,2013-01-09 18:03:00,
2013-01-09 13:04:00,55.8,25.6,30.36,NW,308,0.0,0.0,31,0.00,CLR,,0.00,WeatherDisplay:10.37,2013-01-09 18:04:00,
2013-01-09 13:09:00,56.9,24.9,30.36,NW,308,0.0,0.0,29,0.00,CLR,,0.00,WeatherDisplay:10.37,2013-01-09 18:09:00,
2013-01-09 13:10:00,57.2,24.3,30.36,NW,308,0.0,0.0,28,0.00,CLR,,0.00,WeatherDisplay:10.37,2013-01-09 18:10:00,
2013-01-09 13:14:00,57.1,25.1,30.36,NW,308,0.0,0.0,29,0.00,CLR,,0.00,WeatherDisplay:10.37,2013-01-09 18:14:00,
2013-01-09 13:15:00,57.2,25.2,30.36,NW,308,0.0,0.0,29,0.00,CLR,,0.00,WeatherDisplay:10.37,2013-01-09 18:15:00,
2013-01-09 13:16:00,57.3,25.3,30.36,NW,308,0.0,0.0,29,0.00,CLR,,0.00,WeatherDisplay:10.37,2013-01-09 18:16:00,
2013-01-09 13:19:00,57.3,26.1,30.36,NW,308,0.0,0.0,30,0.00,CLR,,0.00,WeatherDisplay:10.37,2013-01-09 18:19:00,
2013-01-09 13:21:00,56.9,25.7,30.36,NW,308,0.0,0.0,30,0.00,CLR,,0.00,WeatherDisplay:10.37,2013-01-09 18:21:00,
2013-01-09 13:23:00,56.3,25.2,30.36,NW,308,0.0,0.0,30,0.00,CLR,,0.00,WeatherDisplay:10.37,2013-01-09 18:23:00,
2013-01-09 13:25:00,56.5,25.4,30.36,NW,308,0.0,0.0,30,0.00,CLR,,0.00,WeatherDisplay:10.37,2013-01-09 18:25:00,
2013-01-09 13:26:00,56.8,25.7,30.36,NW,308,0.0,0.0,30,0.00,CLR,,0.00,WeatherDisplay:10.37,2013-01-09 18:26:00,
2013-01-09 13:28:00,56.5,25.4,30.36,NW,308,0.0,0.0,30,0.00,CLR,,0.00,WeatherDisplay:10.37,2013-01-09 18:28:00,
2013-01-09 13:30:00,56.7,25.6,30.36,NW,308,0.0,0.0,30,0.00,CLR,,0.00,WeatherDisplay:10.37,2013-01-09 18:30:00,
2013-01-09 13:31:00,56.5,25.4,30.36,NW,308,2.3,0.0,30,0.00,CLR,,0.00,WeatherDisplay:10.37,2013-01-09 18:31:00,
2013-01-09 13:34:00,55.9,25.7,30.36,NW,308,0.0,3.0,31,0.00,CLR,,0.00,WeatherDisplay:10.37,2013-01-09 18:34:00,
2013-01-09 13:35:00,56.1,25.8,30.36,NW,308,0.0,0.0,31,0.00,CLR,,0.00,WeatherDisplay:10.37,2013-01-09 18:35:00,
2013-01-09 13:37:00,56.2,25.9,30.36,NW,308,0.0,0.0,31,0.00,CLR,,0.00,WeatherDisplay:10.37,2013-01-09 18:37:00,
2013-01-09 13:39:00,55.9,25.7,30.36,NW,308,0.0,0.0,31,0.00,CLR,,0.00,WeatherDisplay:10.37,2013-01-09 18:39:00,
2013-01-09 13:41:00,56.2,25.9,30.36,NW,308,0.0,0.0,31,0.00,CLR,,0.00,WeatherDisplay:10.37,2013-01-09 18:41:00,
2013-01-09 13:42:00,56.0,25.8,30.36,NW,308,0.0,0.0,31,0.00,CLR,,0.00,WeatherDisplay:10.37,2013-01-09 18:42:00,
2013-01-09 13:44:00,55.5,26.1,30.36,NW,308,0.0,0.0,32,0.00,CLR,,0.00,WeatherDisplay:10.37,2013-01-09 18:44:00,
2013-01-09 13:45:00,56.2,26.7,30.36,NW,308,0.0,0.0,32,0.00,CLR,,0.00,WeatherDisplay:10.37,2013-01-09 18:45:00,
2013-01-09 13:48:00,55.6,25.4,30.36,NW,308,0.0,0.0,31,0.00,CLR,,0.00,WeatherDisplay:10.37,2013-01-09 18:48:00,
2013-01-09 13:53:00,56.3,26.0,30.36,NW,308,0.0,0.0,31,0.00,CLR,,0.00,WeatherDisplay:10.37,2013-01-09 18:53:00,
2013-01-09 13:54:00,56.2,25.9,30.36,NW,308,0.0,0.0,31,0.00,CLR,,0.00,WeatherDisplay:10.37,2013-01-09 18:54:00,
2013-01-09 13:59:00,56.6,26.3,30.36,NW,308,0.0,0.0,31,0.00,CLR,,0.00,WeatherDisplay:10.37,2013-01-09 18:59:00,
2013-01-09 14:00:00,56.8,25.7,30.36,NW,308,0.0,0.0,30,0.00,CLR,,0.00,WeatherDisplay:10.37,2013-01-09 19:00:00,
2013-01-09 14:01:00,57.0,25.8,30.36,NW,308,0.0,0.0,30,0.00,CLR,,0.00,WeatherDisplay:10.37,2013-01-09 19:01:00,
2013-01-09 14:05:00,57.0,25.0,30.36,NW,308,0.0,0.0,29,0.00,CLR,,0.00,WeatherDisplay:10.37,2013-01-09 19:05:00,
2013-01-09 14:06:00,57.4,26.2,30.36,NW,308,0.0,0.0,30,0.00,CLR,,0.00,WeatherDisplay:10.37,2013-01-09 19:06:00,
2013-01-09 14:08:00,57.6,25.5,30.36,NW,308,0.0,0.0,29,0.00,CLR,,0.00,WeatherDisplay:10.37,2013-01-09 19:08:00,
2013-01-09 14:10:00,57.7,25.6,30.36,NW,308,0.0,0.0,29,0.00,CLR,,0.00,WeatherDisplay:10.37,2013-01-09 19:10:00,
2013-01-09 14:11:00,57.7,25.6,30.36,NW,308,0.0,0.0,29,0.00,CLR,,0.00,WeatherDisplay:10.37,2013-01-09 19:11:00,
2013-01-09 14:12:00,57.6,25.5,30.36,NW,308,0.0,0.0,29,0.00,CLR,,0.00,WeatherDisplay:10.37,2013-01-09 19:12:00,
2013-01-09 14:14:00,57.4,25.4,30.36,NW,308,0.0,0.0,29,0.00,CLR,,0.00,WeatherDisplay:10.37,2013-01-09 19:14:00,
2013-01-09 14:16:00,57.1,25.1,30.36,NW,308,0.0,0.0,29,0.00,CLR,,0.00,WeatherDisplay:10.37,2013-01-09 19:16:00,
2013-01-09 14:17:00,57.0,25.8,30.37,NW,308,0.0,0.0,30,0.00,CLR,,0.00,WeatherDisplay:10.37,2013-01-09 19:17:00,
2013-01-09 14:19:00,57.0,25.8,30.37,NW,308,0.0,0.0,30,0.00,CLR,,0.00,WeatherDisplay:10.37,2013-01-09 19:19:00,
2013-01-09 14:21:00,57.0,25.0,30.37,NW,308,0.0,0.0,29,0.00,CLR,,0.00,WeatherDisplay:10.37,2013-01-09 19:21:00,
2013-01-09 14:22:00,57.4,25.4,30.37,NW,308,0.0,0.0,29,0.00,CLR,,0.00,WeatherDisplay:10.37,2013-01-09 19:22:00,
2013-01-09 14:24:00,57.4,26.2,30.37,NW,308,0.0,0.0,30,0.00,CLR,,0.00,WeatherDisplay:10.37,2013-01-09 19:24:00,
2013-01-09 14:25:00,57.3,25.3,30.37,NW,308,0.0,0.0,29,0.00,CLR,,0.00,WeatherDisplay:10.37,2013-01-09 19:25:00,
2013-01-09 14:27:00,57.7,25.6,30.37,NW,308,0.0,0.0,29,0.00,CLR,,0.00,WeatherDisplay:10.37,2013-01-09 19:27:00,
2013-01-09 14:29:00,57.7,25.6,30.37,NW,308,0.0,0.0,29,0.00,CLR,,0.00,WeatherDisplay:10.37,2013-01-09 19:29:00,
2013-01-09 14:32:00,57.7,25.6,30.37,NW,308,0.0,0.0,29,0.00,CLR,,0.00,WeatherDisplay:10.37,2013-01-09 19:32:00,
2013-01-09 14:34:00,57.6,25.5,30.37,NW,308,0.0,0.0,29,0.00,CLR,,0.00,WeatherDisplay:10.37,2013-01-09 19:34:00,
2013-01-09 14:35:00,57.5,25.5,30.37,NW,308,0.0,0.0,29,0.00,CLR,,0.00,WeatherDisplay:10.37,2013-01-09 19:35:00,
2013-01-09 14:37:00,57.7,25.6,30.37,NW,308,0.0,0.0,29,0.00,CLR,,0.00,WeatherDisplay:10.37,2013-01-09 19:37:00,
2013-01-09 14:38:00,57.4,25.4,30.37,NW,308,0.0,0.0,29,0.00,CLR,,0.00,WeatherDisplay:10.37,2013-01-09 19:38:00,
2013-01-09 14:39:00,57.5,25.4,30.37,NW,308,0.0,0.0,29,0.00,CLR,,0.00,WeatherDisplay:10.37,2013-01-09 19:39:00,
2013-01-09 14:42:00,57.3,25.3,30.38,NW,308,0.0,0.0,29,0.00,CLR,,0.00,WeatherDisplay:10.37,2013-01-09 19:42:00,
2013-01-09 14:44:00,57.7,26.4,30.38,NW,308,0.0,0.0,30,0.00,CLR,,0.00,WeatherDisplay:10.37,2013-01-09 19:44:00,
2013-01-09 14:45:00,57.7,25.6,30.38,NW,308,0.0,0.0,29,0.00,CLR,,0.00,WeatherDisplay:10.37,2013-01-09 19:45:00,
2013-01-09 14:49:00,57.9,26.6,30.38,NW,308,0.0,0.0,30,0.00,CLR,,0.00,WeatherDisplay:10.37,2013-01-09 19:49:00,
2013-01-09 14:50:00,57.7,25.6,30.38,NW,308,0.0,0.0,29,0.00,CLR,,0.00,WeatherDisplay:10.37,2013-01-09 19:50:00,
2013-01-09 14:51:00,57.4,25.4,30.38,NW,308,0.0,0.0,29,0.00,CLR,,0.00,WeatherDisplay:10.37,2013-01-09 19:51:00,
2013-01-09 14:54:00,57.5,25.5,30.38,NW,308,0.0,0.0,29,0.00,CLR,,0.00,WeatherDisplay:10.37,2013-01-09 19:54:00,
2013-01-09 14:56:00,57.7,25.6,30.38,NW,308,0.0,0.0,29,0.00,CLR,,0.00,WeatherDisplay:10.37,2013-01-09 19:56:00,
2013-01-09 15:00:00,57.8,25.7,30.38,NW,308,0.0,0.0,29,0.00,CLR,,0.00,WeatherDisplay:10.37,2013-01-09 20:00:00,
2013-01-09 15:01:00,58.0,25.9,30.38,NW,308,0.0,0.0,29,0.00,CLR,,0.00,WeatherDisplay:10.37,2013-01-09 20:01:00,
2013-01-09 15:03:00,57.8,25.7,30.38,NW,308,0.0,0.0,29,0.00,CLR,,0.00,WeatherDisplay:10.37,2013-01-09 20:03:00,
2013-01-09 15:06:00,57.9,25.8,30.38,WNW,294,0.0,1.6,29,0.00,CLR,,0.00,WeatherDisplay:10.37,2013-01-09 20:06:00,
2013-01-09 15:07:00,58.0,25.9,30.38,WNW,294,0.0,0.0,29,0.00,CLR,,0.00,WeatherDisplay:10.37,2013-01-09 20:07:00,
2013-01-09 15:08:00,58.1,26.0,30.38,WNW,294,0.0,0.0,29,0.00,CLR,,0.00,WeatherDisplay:10.37,2013-01-09 20:08:00,
2013-01-09 15:09:00,57.9,25.8,30.38,WNW,294,0.0,0.0,29,0.00,CLR,,0.00,WeatherDisplay:10.37,2013-01-09 20:09:00,
2013-01-09 15:11:00,58.2,26.1,30.38,WNW,294,0.0,0.0,29,0.00,CLR,,0.00,WeatherDisplay:10.37,2013-01-09 20:11:00,
2013-01-09 15:15:00,58.4,26.2,30.38,WNW,294,0.0,0.0,29,0.00,CLR,,0.00,WeatherDisplay:10.37,2013-01-09 20:15:00,
2013-01-09 15:16:00,58.4,26.2,30.38,WNW,294,0.0,0.0,29,0.00,CLR,,0.00,WeatherDisplay:10.37,2013-01-09 20:16:00,
2013-01-09 15:17:00,58.3,26.1,30.38,WNW,294,0.0,0.0,29,0.00,CLR,,0.00,WeatherDisplay:10.37,2013-01-09 20:17:00,
2013-01-09 15:20:00,58.7,26.5,30.38,WNW,294,0.0,0.0,29,0.00,CLR,,0.00,WeatherDisplay:10.37,2013-01-09 20:20:00,
2013-01-09 15:22:00,58.7,26.5,30.38,WNW,294,0.0,0.0,29,0.00,CLR,,0.00,WeatherDisplay:10.37,2013-01-09 20:22:00,
2013-01-09 15:23:00,58.8,26.6,30.38,WNW,294,0.0,0.0,29,0.00,CLR,,0.00,WeatherDisplay:10.37,2013-01-09 20:23:00,
2013-01-09 15:26:00,59.1,26.8,30.38,WNW,294,0.0,0.0,29,0.00,CLR,,0.00,WeatherDisplay:10.37,2013-01-09 20:26:00,
2013-01-09 15:27:00,59.1,26.8,30.38,WNW,294,0.0,0.0,29,0.00,CLR,,0.00,WeatherDisplay:10.37,2013-01-09 20:27:00,
2013-01-09 15:28:00,59.3,26.2,30.38,WNW,294,0.0,0.0,28,0.00,CLR,,0.00,WeatherDisplay:10.37,2013-01-09 20:28:00,
2013-01-09 15:29:00,59.3,26.1,30.38,WNW,294,0.0,0.0,28,0.00,CLR,,0.00,WeatherDisplay:10.37,2013-01-09 20:29:00,
2013-01-09 15:31:00,59.3,26.2,30.37,WNW,294,0.0,0.0,28,0.00,CLR,,0.00,WeatherDisplay:10.37,2013-01-09 20:31:00,
2013-01-09 15:33:00,59.7,26.5,30.37,WNW,294,0.0,0.0,28,0.00,CLR,,0.00,WeatherDisplay:10.37,2013-01-09 20:33:00,
2013-01-09 15:35:00,59.9,26.7,30.37,WNW,294,0.0,0.0,28,0.00,CLR,,0.00,WeatherDisplay:10.37,2013-01-09 20:35:00,
2013-01-09 15:36:00,59.9,25.8,30.37,WNW,294,0.0,0.0,27,0.00,CLR,,0.00,WeatherDisplay:10.37,2013-01-09 20:36:00,
2013-01-09 15:38:00,60.1,26.9,30.37,WNW,294,0.0,0.0,28,0.00,CLR,,0.00,WeatherDisplay:10.37,2013-01-09 20:38:00,
2013-01-09 15:43:00,60.3,27.0,30.37,WNW,294,0.0,0.0,28,0.00,CLR,,0.00,WeatherDisplay:10.37,2013-01-09 20:43:00,
2013-01-09 15:45:00,60.4,27.1,30.37,WNW,294,0.0,0.0,28,0.00,CLR,,0.00,WeatherDisplay:10.37,2013-01-09 20:45:00,
2013-01-09 15:49:00,60.6,27.3,30.37,WNW,294,0.0,0.0,28,0.00,CLR,,0.00,WeatherDisplay:10.37,2013-01-09 20:49:00,
2013-01-09 15:51:00,61.1,27.7,30.36,WNW,294,0.0,0.0,28,0.00,CLR,,0.00,WeatherDisplay:10.37,2013-01-09 20:51:00,
2013-01-09 15:53:00,61.2,26.9,30.36,WNW,294,0.0,0.0,27,0.00,CLR,,0.00,WeatherDisplay:10.37,2013-01-09 20:53:00,
2013-01-09 15:54:00,61.4,27.1,30.36,WNW,294,0.0,0.0,27,0.00,CLR,,0.00,WeatherDisplay:10.37,2013-01-09 20:54:00,
2013-01-09 15:57:00,61.3,27.9,30.36,WNW,294,0.0,0.0,28,0.00,CLR,,0.00,WeatherDisplay:10.37,2013-01-09 20:57:00,
2013-01-09 15:58:00,61.3,27.9,30.36,WNW,294,0.0,0.0,28,0.00,CLR,,0.00,WeatherDisplay:10.37,2013-01-09 20:58:00,
2013-01-09 15:59:00,61.2,27.8,30.36,WNW,294,0.0,0.0,28,0.00,CLR,,0.00,WeatherDisplay:10.37,2013-01-09 20:59:00,
2013-01-09 16:04:00,60.9,28.4,30.36,West,271,5.8,5.8,29,0.00,CLR,,0.00,WeatherDisplay:10.37,2013-01-09 21:04:00,
2013-01-09 16:07:00,60.9,29.2,30.36,West,271,0.0,0.0,30,0.00,CLR,,0.00,WeatherDisplay:10.37,2013-01-09 21:07:00,
2013-01-09 16:08:00,60.8,29.1,30.36,WNW,287,5.1,5.1,30,0.00,CLR,,0.00,WeatherDisplay:10.37,2013-01-09 21:08:00,
2013-01-09 16:13:00,60.7,29.9,30.36,West,267,0.0,0.0,31,0.00,CLR,,0.00,WeatherDisplay:10.37,2013-01-09 21:13:00,
2013-01-09 16:14:00,60.7,30.6,30.35,West,267,0.0,0.0,32,0.00,CLR,,0.00,WeatherDisplay:10.37,2013-01-09 21:14:00,
2013-01-09 16:17:00,60.9,30.0,30.35,West,267,0.0,0.0,31,0.00,CLR,,0.00,WeatherDisplay:10.37,2013-01-09 21:17:00,
2013-01-09 16:19:00,60.8,29.9,30.35,WSW,253,5.3,5.3,31,0.00,CLR,,0.00,WeatherDisplay:10.37,2013-01-09 21:19:00,
2013-01-09 16:20:00,60.7,30.6,30.35,SW,226,4.6,4.6,32,0.00,CLR,,0.00,WeatherDisplay:10.37,2013-01-09 21:20:00,
2013-01-09 16:24:00,60.7,30.6,30.35,WSW,247,1.0,7.0,32,0.00,CLR,,0.00,WeatherDisplay:10.37,2013-01-09 21:24:00,
2013-01-09 16:25:00,60.3,31.0,30.36,WNW,292,6.9,6.9,33,0.00,CLR,,0.00,WeatherDisplay:10.37,2013-01-09 21:25:00,
2013-01-09 16:26:00,60.5,31.2,30.36,WNW,292,6.9,0.0,33,0.00,CLR,,0.00,WeatherDisplay:10.37,2013-01-09 21:26:00,
2013-01-09 16:29:00,60.5,31.2,30.36,WNW,286,2.0,7.0,33,0.00,CLR,,0.00,WeatherDisplay:10.37,2013-01-09 21:29:00,
2013-01-09 16:30:00,60.2,31.0,30.36,NNW,337,0.0,0.0,33,0.00,CLR,,0.00,WeatherDisplay:10.37,2013-01-09 21:30:00,
2013-01-09 16:32:00,60.2,31.0,30.36,NW,326,5.7,5.7,33,0.00,CLR,,0.00,WeatherDisplay:10.37,2013-01-09 21:32:00,
2013-01-09 16:33:00,60.1,31.6,30.36,West,281,8.1,8.1,34,0.00,CLR,,0.00,WeatherDisplay:10.37,2013-01-09 21:33:00,
2013-01-09 16:36:00,60.0,31.5,30.36,West,281,5.8,5.8,34,0.00,CLR,,0.00,WeatherDisplay:10.37,2013-01-09 21:36:00,
2013-01-09 16:37:00,60.0,31.5,30.37,WNW,299,5.4,5.4,34,0.00,CLR,,0.00,WeatherDisplay:10.37,2013-01-09 21:37:00,
2013-01-09 16:38:00,59.9,31.4,30.37,NW,304,9.0,9.0,34,0.00,CLR,,0.00,WeatherDisplay:10.37,2013-01-09 21:38:00,
2013-01-09 16:41:00,59.7,32.0,30.36,WNW,299,5.8,5.8,35,0.00,CLR,,0.00,WeatherDisplay:10.37,2013-01-09 21:41:00,
2013-01-09 16:42:00,59.9,32.2,30.36,WNW,282,3.5,3.5,35,0.00,CLR,,0.00,WeatherDisplay:10.37,2013-01-09 21:42:00,
2013-01-09 16:43:00,59.7,32.0,30.36,WNW,282,4.6,4.6,35,0.00,CLR,,0.00,WeatherDisplay:10.37,2013-01-09 21:43:00,
2013-01-09 16:47:00,59.4,32.4,30.36,West,268,10.4,10.4,36,0.00,CLR,,0.00,WeatherDisplay:10.37,2013-01-09 21:47:00,
2013-01-09 16:48:00,59.5,32.5,30.36,West,268,10.4,10.4,36,0.00,CLR,,0.00,WeatherDisplay:10.37,2013-01-09 21:48:00,
2013-01-09 16:51:00,59.5,32.5,30.36,WNW,295,5.8,5.8,36,0.00,CLR,,0.00,WeatherDisplay:10.37,2013-01-09 21:51:00,
2013-01-09 16:53:00,59.4,32.4,30.36,WNW,282,6.9,6.9,36,0.00,CLR,,0.00,WeatherDisplay:10.37,2013-01-09 21:53:00,
2013-01-09 16:54:00,59.2,32.2,30.36,WNW,282,6.9,6.9,36,0.00,CLR,,0.00,WeatherDisplay:10.37,2013-01-09 21:54:00,
2013-01-09 16:56:00,59.1,32.8,30.36,WNW,291,9.2,9.2,37,0.00,CLR,,0.00,WeatherDisplay:10.37,2013-01-09 21:56:00,
2013-01-09 16:57:00,59.2,32.9,30.36,West,268,12.7,12.7,37,0.00,CLR,,0.00,WeatherDisplay:10.37,2013-01-09 21:57:00,
2013-01-09 16:59:00,59.0,32.7,30.36,NW,313,9.2,9.2,37,0.00,CLR,,0.00,WeatherDisplay:10.37,2013-01-09 21:59:00,
2013-01-09 17:02:00,59.1,32.8,30.36,WNW,284,6.9,6.9,37,0.00,CLR,,0.00,WeatherDisplay:10.37,2013-01-09 22:02:00,
2013-01-09 17:03:00,58.9,32.7,30.36,NW,318,5.8,5.8,37,0.00,CLR,,0.00,WeatherDisplay:10.37,2013-01-09 22:03:00,
2013-01-09 17:04:00,58.7,33.1,30.36,WNW,284,9.2,9.2,38,0.00,CLR,,0.00,WeatherDisplay:10.37,2013-01-09 22:04:00,
2013-01-09 17:05:00,58.8,33.2,30.36,WSW,256,9.2,9.2,38,0.00,CLR,,0.00,WeatherDisplay:10.37,2013-01-09 22:05:00,
2013-01-09 17:08:00,58.7,33.1,30.36,West,260,9.2,9.2,38,0.00,CLR,,0.00,WeatherDisplay:10.37,2013-01-09 22:08:00,
2013-01-09 17:10:00,58.7,33.1,30.36,WNW,302,6.9,6.9,38,0.00,CLR,,0.00,WeatherDisplay:10.37,2013-01-09 22:10:00,
2013-01-09 17:13:00,58.4,32.9,30.36,West,270,9.7,9.7,38,0.00,CLR,,0.00,WeatherDisplay:10.37,2013-01-09 22:13:00,
2013-01-09 17:14:00,58.3,32.8,30.36,WNW,285,9.2,9.2,38,0.00,CLR,,0.00,WeatherDisplay:10.37,2013-01-09 22:14:00,
2013-01-09 17:15:00,58.4,32.9,30.36,WNW,291,6.9,6.9,38,0.00,CLR,,0.00,WeatherDisplay:10.37,2013-01-09 22:15:00,
2013-01-09 17:19:00,58.3,32.8,30.36,WNW,299,10.4,10.4,38,0.00,CLR,,0.00,WeatherDisplay:10.37,2013-01-09 22:19:00,
2013-01-09 17:20:00,58.2,32.7,30.36,NW,309,8.1,8.1,38,0.00,CLR,,0.00,WeatherDisplay:10.37,2013-01-09 22:20:00,
2013-01-09 17:22:00,58.1,32.6,30.36,WNW,285,6.9,6.9,38,0.00,CLR,,0.00,WeatherDisplay:10.37,2013-01-09 22:22:00,
2013-01-09 17:25:00,58.1,33.2,30.36,NW,306,9.2,9.2,39,0.00,CLR,,0.00,WeatherDisplay:10.37,2013-01-09 22:25:00,
2013-01-09 17:27:00,58.0,33.2,30.36,WNW,287,6.9,6.9,39,0.00,CLR,,0.00,WeatherDisplay:10.37,2013-01-09 22:27:00,
2013-01-09 17:28:00,57.9,33.1,30.36,West,281,8.1,8.1,39,0.00,CLR,,0.00,WeatherDisplay:10.37,2013-01-09 22:28:00,
2013-01-09 17:31:00,57.8,33.0,30.36,WNW,294,10.4,10.4,39,0.00,CLR,,0.00,WeatherDisplay:10.37,2013-01-09 22:31:00,
2013-01-09 17:33:00,57.7,32.9,30.36,WNW,292,7.6,7.6,39,0.00,CLR,,0.00,WeatherDisplay:10.37,2013-01-09 22:33:00,
2013-01-09 17:35:00,57.9,33.7,30.36,West,281,8.1,8.1,40,0.00,CLR,,0.00,WeatherDisplay:10.37,2013-01-09 22:35:00,
2013-01-09 17:39:00,57.4,33.3,30.36,WNW,292,9.6,9.6,40,0.00,CLR,,0.00,WeatherDisplay:10.37,2013-01-09 22:39:00,
2013-01-09 17:40:00,57.4,33.3,30.36,WNW,296,12.0,12.0,40,0.00,CLR,,0.00,WeatherDisplay:10.37,2013-01-09 22:40:00,
2013-01-09 17:41:00,57.4,33.3,30.36,WNW,289,12.7,12.7,40,0.00,CLR,,0.00,WeatherDisplay:10.37,2013-01-09 22:41:00,
2013-01-09 17:44:00,57.3,33.1,30.36,WNW,300,7.0,13.0,40,0.00,CLR,,0.00,WeatherDisplay:10.37,2013-01-09 22:44:00,
2013-01-09 17:46:00,57.3,33.2,30.37,NW,322,10.4,10.4,40,0.00,CLR,,0.00,WeatherDisplay:10.37,2013-01-09 22:46:00,
2013-01-09 17:49:00,57.1,33.6,30.37,West,281,6.9,6.9,41,0.00,CLR,,0.00,WeatherDisplay:10.37,2013-01-09 22:49:00,
2013-01-09 17:51:00,57.1,33.6,30.37,NW,315,7.3,7.3,41,0.00,CLR,,0.00,WeatherDisplay:10.37,2013-01-09 22:51:00,
2013-01-09 17:52:00,57.0,33.5,30.37,WNW,284,10.4,10.4,41,0.00,CLR,,0.00,WeatherDisplay:10.37,2013-01-09 22:52:00,
2013-01-09 17:55:00,57.1,33.6,30.37,WNW,292,9.2,9.2,41,0.00,CLR,,0.00,WeatherDisplay:10.37,2013-01-09 22:55:00,
2013-01-09 17:56:00,57.0,33.5,30.37,WNW,296,10.4,10.4,41,0.00,CLR,,0.00,WeatherDisplay:10.37,2013-01-09 22:56:00,
2013-01-09 17:57:00,57.0,33.5,30.37,WNW,296,10.9,10.9,41,0.00,CLR,,0.00,WeatherDisplay:10.37,2013-01-09 22:57:00,
2013-01-09 18:01:00,56.8,33.9,30.37,West,277,8.0,8.0,42,0.00,CLR,,0.00,WeatherDisplay:10.37,2013-01-09 23:01:00,
2013-01-09 18:02:00,56.8,33.9,30.37,NW,325,6.9,6.9,42,0.00,CLR,,0.00,WeatherDisplay:10.37,2013-01-09 23:02:00,
2013-01-09 18:04:00,56.7,33.9,30.37,WNW,296,5.0,8.0,42,0.00,CLR,,0.00,WeatherDisplay:10.37,2013-01-09 23:04:00,
2013-01-09 18:08:00,56.5,34.3,30.37,NNW,330,5.8,5.8,43,0.00,CLR,,0.00,WeatherDisplay:10.37,2013-01-09 23:08:00,
2013-01-09 18:10:00,55.8,33.6,30.37,WNW,296,8.1,8.1,43,0.00,CLR,,0.00,WeatherDisplay:10.37,2013-01-09 23:10:00,
2013-01-09 18:14:00,55.9,33.7,30.37,North,349,4.6,4.6,43,0.00,CLR,,0.00,WeatherDisplay:10.37,2013-01-09 23:14:00,
2013-01-09 18:15:00,55.6,33.4,30.37,NW,313,6.9,6.9,43,0.00,CLR,,0.00,WeatherDisplay:10.37,2013-01-09 23:15:00,
2013-01-09 18:17:00,55.8,34.2,30.37,WNW,298,6.9,6.9,44,0.00,CLR,,0.00,WeatherDisplay:10.37,2013-01-09 23:17:00,
2013-01-09 18:19:00,55.3,33.7,30.37,West,277,6.9,6.9,44,0.00,CLR,,0.00,WeatherDisplay:10.37,2013-01-09 23:19:00,
2013-01-09 18:21:00,55.3,33.7,30.38,NW,316,8.6,8.6,44,0.00,CLR,,0.00,WeatherDisplay:10.37,2013-01-09 23:21:00,
2013-01-09 18:22:00,55.4,33.8,30.38,NW,319,9.2,9.2,44,0.00,CLR,,0.00,WeatherDisplay:10.37,2013-01-09 23:22:00,
2013-01-09 18:24:00,55.5,34.0,30.38,WNW,300,3.0,10.0,44,0.00,CLR,,0.00,WeatherDisplay:10.37,2013-01-09 23:24:00,
2013-01-09 18:27:00,55.6,34.0,30.38,NW,304,6.9,6.9,44,0.00,CLR,,0.00,WeatherDisplay:10.37,2013-01-09 23:27:00,
2013-01-09 18:28:00,55.4,33.8,30.38,NW,322,5.8,5.8,44,0.00,CLR,,0.00,WeatherDisplay:10.37,2013-01-09 23:28:00,
2013-01-09 18:29:00,55.4,33.8,30.38,NW,306,3.0,7.0,44,0.00,CLR,,0.00,WeatherDisplay:10.37,2013-01-09 23:29:00,
2013-01-09 18:31:00,55.3,33.7,30.38,NW,312,6.9,6.9,44,0.00,CLR,,0.00,WeatherDisplay:10.37,2013-01-09 23:31:00,
2013-01-09 18:34:00,55.4,33.8,30.38,NW,311,6.0,10.0,44,0.00,CLR,,0.00,WeatherDisplay:10.37,2013-01-09 23:34:00,
2013-01-09 18:35:00,55.6,34.0,30.38,WNW,292,9.2,9.2,44,0.00,CLR,,0.00,WeatherDisplay:10.37,2013-01-09 23:35:00,
2013-01-09 18:36:00,55.7,34.1,30.38,NW,315,8.1,8.1,44,0.00,CLR,,0.00,WeatherDisplay:10.37,2013-01-09 23:36:00,
2013-01-09 18:37:00,55.3,33.7,30.38,NNW,333,6.9,6.9,44,0.00,CLR,,0.00,WeatherDisplay:10.37,2013-01-09 23:37:00,
2013-01-09 18:40:00,55.5,34.5,30.38,NW,326,8.7,8.7,45,0.00,CLR,,0.00,WeatherDisplay:10.37,2013-01-09 23:40:00,
2013-01-09 18:42:00,55.0,34.0,30.38,WNW,295,10.8,10.8,45,0.00,CLR,,0.00,WeatherDisplay:10.37,2013-01-09 23:42:00,
2013-01-09 18:43:00,55.4,34.4,30.38,WNW,285,9.2,9.2,45,0.00,CLR,,0.00,WeatherDisplay:10.37,2013-01-09 23:43:00,
2013-01-09 18:45:00,55.1,34.1,30.38,NW,309,10.4,10.4,45,0.00,CLR,,0.00,WeatherDisplay:10.37,2013-01-09 23:45:00,
2013-01-09 18:48:00,55.3,34.3,30.38,WNW,299,10.4,10.4,45,0.00,CLR,,0.00,WeatherDisplay:10.37,2013-01-09 23:48:00,
2013-01-09 18:49:00,55.2,34.2,30.38,NW,304,3.0,10.0,45,0.00,CLR,,0.00,WeatherDisplay:10.37,2013-01-09 23:49:00,
2013-01-09 18:51:00,55.1,34.1,30.38,NW,308,8.1,8.1,45,0.00,CLR,,0.00,WeatherDisplay:10.37,2013-01-09 23:51:00,
2013-01-09 18:53:00,54.8,34.4,30.38,NW,309,8.1,8.1,46,0.00,CLR,,0.00,WeatherDisplay:10.37,2013-01-09 23:53:00,
2013-01-09 18:55:00,55.0,34.6,30.38,NW,320,6.9,6.9,46,0.00,CLR,,0.00,WeatherDisplay:10.37,2013-01-09 23:55:00,
2013-01-09 18:57:00,55.1,34.7,30.38,NW,326,9.2,9.2,46,0.00,CLR,,0.00,WeatherDisplay:10.37,2013-01-09 23:57:00,
2013-01-09 18:59:00,55.0,34.6,30.38,NW,315,5.0,10.0,46,0.00,CLR,,0.00,WeatherDisplay:10.37,2013-01-09 23:59:00,
2013-01-09 19:00:00,55.0,34.6,30.39,NNW,340,5.8,0.0,46,0.00,CLR,,0.00,WeatherDisplay:10.37,2013-01-10 00:00:00,
2013-01-09 19:02:00,55.0,35.1,30.39,NNW,333,6.7,6.7,47,0.00,CLR,,0.00,WeatherDisplay:10.37,2013-01-10 00:02:00,
2013-01-09 19:05:00,55.0,35.1,30.39,WNW,284,8.4,8.4,47,0.00,CLR,,0.00,WeatherDisplay:10.37,2013-01-10 00:05:00,
2013-01-09 19:06:00,54.9,35.0,30.39,WNW,288,9.2,9.2,47,0.00,CLR,,0.00,WeatherDisplay:10.37,2013-01-10 00:06:00,
2013-01-09 19:08:00,54.6,34.8,30.39,WNW,285,9.2,9.2,47,0.00,CLR,,0.00,WeatherDisplay:10.37,2013-01-10 00:08:00,
2013-01-09 19:09:00,54.9,35.6,30.39,NW,315,8.8,8.8,48,0.00,CLR,,0.00,WeatherDisplay:10.37,2013-01-10 00:09:00,
2013-01-09 19:10:00,54.6,35.3,30.39,NNE,14,9.2,9.2,48,0.00,CLR,,0.00,WeatherDisplay:10.37,2013-01-10 00:10:00,
2013-01-09 19:12:00,54.6,35.3,30.39,NW,304,7.3,7.3,48,0.00,CLR,,0.00,WeatherDisplay:10.37,2013-01-10 00:12:00,
2013-01-09 19:14:00,54.9,35.6,30.39,NW,312,8.1,8.1,48,0.00,CLR,,0.00,WeatherDisplay:10.37,2013-01-10 00:14:00,
2013-01-09 19:15:00,54.8,35.5,30.39,NNW,337,8.1,8.1,48,0.00,CLR,,0.00,WeatherDisplay:10.37,2013-01-10 00:15:00,
2013-01-09 19:18:00,54.8,35.5,30.39,NW,308,6.9,6.9,48,0.00,CLR,,0.00,WeatherDisplay:10.37,2013-01-10 00:18:00,
2013-01-09 19:20:00,54.7,35.9,30.39,NNW,342,10.4,10.4,49,0.00,CLR,,0.00,WeatherDisplay:10.37,2013-01-10 00:20:00,
2013-01-09 19:21:00,54.6,35.3,30.39,NNW,343,10.4,10.4,48,0.00,CLR,,0.00,WeatherDisplay:10.37,2013-01-10 00:21:00,
2013-01-09 19:25:00,54.8,36.0,30.39,NW,309,6.9,6.9,49,0.00,CLR,,0.00,WeatherDisplay:10.37,2013-01-10 00:25:00,
2013-01-09 19:26:00,54.7,35.9,30.39,WNW,296,8.1,8.1,49,0.00,CLR,,0.00,WeatherDisplay:10.37,2013-01-10 00:26:00,
2013-01-09 19:27:00,54.6,35.8,30.39,NW,318,8.1,8.1,49,0.00,CLR,,0.00,WeatherDisplay:10.37,2013-01-10 00:27:00,
2013-01-09 19:31:00,54.4,36.1,30.40,NNW,339,3.5,3.5,50,0.00,CLR,,0.00,WeatherDisplay:10.37,2013-01-10 00:31:00,
2013-01-09 19:32:00,54.6,36.3,30.40,NNW,339,3.5,0.0,50,0.00,CLR,,0.00,WeatherDisplay:10.37,2013-01-10 00:32:00,
2013-01-09 19:33:00,54.7,36.9,30.40,West,271,5.5,5.5,51,0.00,CLR,,0.00,WeatherDisplay:10.37,2013-01-10 00:33:00,
2013-01-09 19:37:00,54.3,37.0,30.40,WNW,301,4.6,4.6,52,0.00,CLR,,0.00,WeatherDisplay:10.37,2013-01-10 00:37:00,
2013-01-09 19:38:00,54.6,37.3,30.39,WNW,301,0.0,0.0,52,0.00,CLR,,0.00,WeatherDisplay:10.37,2013-01-10 00:38:00,
2013-01-09 19:39:00,54.6,37.3,30.39,WNW,301,0.0,0.0,52,0.00,CLR,,0.00,WeatherDisplay:10.37,2013-01-10 00:39:00,
2013-01-09 19:42:00,54.5,37.7,30.40,NW,311,3.0,3.0,53,0.00,CLR,,0.00,WeatherDisplay:10.37,2013-01-10 00:42:00,
2013-01-09 19:44:00,54.5,37.7,30.40,WNW,301,3.5,3.5,53,0.00,CLR,,0.00,WeatherDisplay:10.37,2013-01-10 00:44:00,
2013-01-09 19:45:00,53.6,36.9,30.40,WNW,301,0.0,0.0,53,0.00,CLR,,0.00,WeatherDisplay:10.37,2013-01-10 00:45:00,
2013-01-09 19:46:00,54.0,37.7,30.40,WNW,301,0.0,0.0,54,0.00,CLR,,0.00,WeatherDisplay:10.37,2013-01-10 00:46:00,
2013-01-09 19:48:00,54.3,38.0,30.40,NNW,347,6.9,6.9,54,0.00,CLR,,0.00,WeatherDisplay:10.37,2013-01-10 00:48:00,
2013-01-09 19:50:00,54.2,37.4,30.40,North,360,0.0,0.0,53,0.00,CLR,,0.00,WeatherDisplay:10.37,2013-01-10 00:50:00,
2013-01-09 19:51:00,54.3,38.0,30.40,North,360,0.0,0.0,54,0.00,CLR,,0.00,WeatherDisplay:10.37,2013-01-10 00:51:00,
2013-01-09 19:54:00,53.8,37.6,30.40,North,352,3.0,7.0,54,0.00,CLR,,0.00,WeatherDisplay:10.37,2013-01-10 00:54:00,
2013-01-09 19:55:00,54.0,37.2,30.40,NNW,342,3.5,3.5,53,0.00,CLR,,0.00,WeatherDisplay:10.37,2013-01-10 00:55:00,
2013-01-09 19:57:00,53.7,37.4,30.40,NNW,342,0.0,0.0,54,0.00,CLR,,0.00,WeatherDisplay:10.37,2013-01-10 00:57:00,
2013-01-09 19:59:00,53.5,38.2,30.40,North,354,3.5,3.5,56,0.00,CLR,,0.00,WeatherDisplay:10.37,2013-01-10 00:59:00,
2013-01-09 20:00:00,53.5,38.2,30.40,NNW,344,6.9,6.9,56,0.00,CLR,,0.00,WeatherDisplay:10.37,2013-01-10 01:00:00,
2013-01-09 20:03:00,53.4,38.1,30.40,NNW,333,0.0,0.0,56,0.00,CLR,,0.00,WeatherDisplay:10.37,2013-01-10 01:03:00,
2013-01-09 20:04:00,53.5,38.2,30.40,WNW,295,5.5,5.5,56,0.00,CLR,,0.00,WeatherDisplay:10.37,2013-01-10 01:04:00,
2013-01-09 20:06:00,53.4,37.6,30.40,NNW,332,6.9,6.9,55,0.00,CLR,,0.00,WeatherDisplay:10.37,2013-01-10 01:06:00,
2013-01-09 20:09:00,53.5,38.2,30.41,NNW,347,5.3,5.3,56,0.00,CLR,,0.00,WeatherDisplay:10.37,2013-01-10 01:09:00,
2013-01-09 20:10:00,54.1,38.3,30.40,NW,309,9.2,9.2,55,0.00,CLR,,0.00,WeatherDisplay:10.37,2013-01-10 01:10:00,
2013-01-09 20:14:00,53.8,38.5,30.41,NW,313,0.0,0.0,56,0.00,CLR,,0.00,WeatherDisplay:10.37,2013-01-10 01:14:00,
2013-01-09 20:18:00,53.8,38.9,30.41,WNW,302,6.9,6.9,57,0.00,CLR,,0.00,WeatherDisplay:10.37,2013-01-10 01:18:00,
2013-01-09 20:19:00,53.6,38.7,30.41,NW,322,2.0,13.0,57,0.00,CLR,,0.00,WeatherDisplay:10.37,2013-01-10 01:19:00,
2013-01-09 20:20:00,54.1,38.3,30.40,NW,326,11.5,11.5,55,0.00,CLR,,0.00,WeatherDisplay:10.37,2013-01-10 01:20:00,
2013-01-09 20:24:00,54.2,38.4,30.40,WNW,295,8.1,8.1,55,0.00,CLR,,0.00,WeatherDisplay:10.37,2013-01-10 01:24:00,
2013-01-09 20:25:00,54.5,38.2,30.40,WNW,285,9.2,9.2,54,0.00,CLR,,0.00,WeatherDisplay:10.37,2013-01-10 01:25:00,
2013-01-09 20:26:00,54.0,37.7,30.40,NW,319,9.2,9.2,54,0.00,CLR,,0.00,WeatherDisplay:10.37,2013-01-10 01:26:00,
2013-01-09 20:27:00,54.1,37.8,30.40,NNW,335,8.1,8.1,54,0.00,CLR,,0.00,WeatherDisplay:10.37,2013-01-10 01:27:00,
2013-01-09 20:30:00,54.4,38.6,30.40,NNW,343,4.6,4.6,55,0.00,CLR,,0.00,WeatherDisplay:10.37,2013-01-10 01:30:00,
2013-01-09 20:31:00,53.7,38.4,30.40,NNW,330,5.8,5.8,56,0.00,CLR,,0.00,WeatherDisplay:10.37,2013-01-10 01:31:00,
2013-01-09 20:32:00,54.2,38.8,30.40,NW,308,5.8,5.8,56,0.00,CLR,,0.00,WeatherDisplay:10.37,2013-01-10 01:32:00,
2013-01-09 20:33:00,53.7,38.8,30.40,WNW,296,6.0,6.0,57,0.00,CLR,,0.00,WeatherDisplay:10.37,2013-01-10 01:33:00,
2013-01-09 20:36:00,54.4,39.5,30.40,NNW,342,9.2,9.2,57,0.00,CLR,,0.00,WeatherDisplay:10.37,2013-01-10 01:36:00,
2013-01-09 20:37:00,54.4,39.0,30.40,NNW,330,9.2,9.2,56,0.00,CLR,,0.00,WeatherDisplay:10.37,2013-01-10 01:37:00,
2013-01-09 20:38:00,54.4,39.5,30.40,NW,320,7.0,7.0,57,0.00,CLR,,0.00,WeatherDisplay:10.37,2013-01-10 01:38:00,
2013-01-09 20:39:00,54.4,39.0,30.40,WNW,302,4.6,4.6,56,0.00,CLR,,0.00,WeatherDisplay:10.37,2013-01-10 01:39:00,
2013-01-09 20:44:00,54.3,38.0,30.40,West,277,9.2,9.2,54,0.00,CLR,,0.00,WeatherDisplay:10.37,2013-01-10 01:44:00,
2013-01-09 20:45:00,54.4,38.1,30.40,NW,306,6.9,6.9,54,0.00,CLR,,0.00,WeatherDisplay:10.37,2013-01-10 01:45:00,
2013-01-09 20:46:00,54.7,38.4,30.40,NNW,344,9.2,9.2,54,0.00,CLR,,0.00,WeatherDisplay:10.37,2013-01-10 01:46:00,
2013-01-09 20:49:00,54.4,37.6,30.40,WNW,292,9.2,9.2,53,0.00,CLR,,0.00,WeatherDisplay:10.37,2013-01-10 01:49:00,
2013-01-09 20:51:00,54.7,37.9,30.40,WNW,291,5.8,5.8,53,0.00,CLR,,0.00,WeatherDisplay:10.37,2013-01-10 01:51:00,
2013-01-09 20:53:00,54.9,37.6,30.41,North,3,8.1,8.1,52,0.00,CLR,,0.00,WeatherDisplay:10.37,2013-01-10 01:53:00,
2013-01-09 20:55:00,54.9,37.6,30.41,NW,304,8.1,8.1,52,0.00,CLR,,0.00,WeatherDisplay:10.37,2013-01-10 01:55:00,
2013-01-09 20:56:00,54.8,37.5,30.41,WNW,294,9.2,9.2,52,0.00,CLR,,0.00,WeatherDisplay:10.37,2013-01-10 01:56:00,
2013-01-09 20:58:00,54.8,37.5,30.41,North,353,4.6,0.0,52,0.00,CLR,,0.00,WeatherDisplay:10.37,2013-01-10 01:58:00,
2013-01-09 21:00:00,54.9,37.1,30.41,WNW,294,10.4,10.4,51,0.00,CLR,,0.00,WeatherDisplay:10.37,2013-01-10 02:00:00,
2013-01-09 21:02:00,54.9,36.6,30.40,WNW,282,9.2,9.2,50,0.00,CLR,,0.00,WeatherDisplay:10.37,2013-01-10 02:02:00,
2013-01-09 21:04:00,54.9,36.6,30.40,NW,309,6.9,6.9,50,0.00,CLR,,0.00,WeatherDisplay:10.37,2013-01-10 02:04:00,
2013-01-09 21:06:00,55.1,36.3,30.40,NW,319,9.2,9.2,49,0.00,CLR,,0.00,WeatherDisplay:10.37,2013-01-10 02:06:00,
2013-01-09 21:08:00,55.0,36.7,30.40,North,360,8.8,8.8,50,0.00,CLR,,0.00,WeatherDisplay:10.37,2013-01-10 02:08:00,
2013-01-09 21:09:00,55.0,36.2,30.40,NW,318,7.0,13.0,49,0.00,CLR,,0.00,WeatherDisplay:10.37,2013-01-10 02:09:00,
2013-01-09 21:12:00,55.2,36.4,30.41,NNW,332,9.2,9.2,49,0.00,CLR,,0.00,WeatherDisplay:10.37,2013-01-10 02:12:00,
2013-01-09 21:13:00,55.1,36.8,30.40,NNW,328,9.2,9.2,50,0.00,CLR,,0.00,WeatherDisplay:10.37,2013-01-10 02:13:00,
2013-01-09 21:14:00,55.1,37.3,30.40,NNW,328,3.5,0.0,51,0.00,CLR,,0.00,WeatherDisplay:10.37,2013-01-10 02:14:00,
2013-01-09 21:15:00,54.9,37.1,30.40,NNW,328,3.5,0.0,51,0.00,CLR,,0.00,WeatherDisplay:10.37,2013-01-10 02:15:00,
2013-01-09 21:19:00,54.8,36.5,30.41,WNW,301,10.4,10.4,50,0.00,CLR,,0.00,WeatherDisplay:10.37,2013-01-10 02:19:00,
2013-01-09 21:21:00,55.0,36.7,30.41,NW,306,8.1,8.1,50,0.00,CLR,,0.00,WeatherDisplay:10.37,2013-01-10 02:21:00,
2013-01-09 21:22:00,54.9,36.1,30.41,North,354,10.4,10.4,49,0.00,CLR,,0.00,WeatherDisplay:10.37,2013-01-10 02:22:00,
2013-01-09 21:23:00,55.0,36.2,30.41,NW,323,10.4,10.4,49,0.00,CLR,,0.00,WeatherDisplay:10.37,2013-01-10 02:23:00,
2013-01-09 21:24:00,55.0,35.7,30.41,NW,322,7.0,13.0,48,0.00,CLR,,0.00,WeatherDisplay:10.37,2013-01-10 02:24:00,
2013-01-09 21:28:00,55.5,35.0,30.41,WNW,298,15.6,15.6,46,0.00,CLR,,0.00,WeatherDisplay:10.37,2013-01-10 02:28:00,
2013-01-09 21:29:00,55.9,34.8,30.41,West,268,16.1,16.1,45,0.00,CLR,,0.00,WeatherDisplay:10.37,2013-01-10 02:29:00,
2013-01-09 21:30:00,56.2,35.1,30.41,WNW,284,16.1,16.1,45,0.00,CLR,,0.00,WeatherDisplay:10.37,2013-01-10 02:30:00,
2013-01-09 21:31:00,55.9,35.4,30.41,NW,322,9.2,9.2,46,0.00,CLR,,0.00,WeatherDisplay:10.37,2013-01-10 02:31:00,
2013-01-09 21:34:00,55.8,35.3,30.40,WNW,285,12.7,12.7,46,0.00,CLR,,0.00,WeatherDisplay:10.37,2013-01-10 02:34:00,
2013-01-09 21:35:00,56.0,34.9,30.40,NW,316,21.2,21.2,45,0.00,CLR,,0.00,WeatherDisplay:10.37,2013-01-10 02:35:00,
2013-01-09 21:36:00,56.3,34.6,30.40,NW,325,21.9,21.9,44,0.00,CLR,,0.00,WeatherDisplay:10.37,2013-01-10 02:36:00,
2013-01-09 21:37:00,56.3,34.6,30.40,NNW,347,21.9,21.9,44,0.00,CLR,,0.00,WeatherDisplay:10.37,2013-01-10 02:37:00,
2013-01-09 21:39:00,56.6,34.9,30.41,North,356,16.6,16.6,44,0.00,CLR,,0.00,WeatherDisplay:10.37,2013-01-10 02:39:00,
2013-01-09 21:42:00,56.6,34.3,30.41,NW,323,20.7,20.7,43,0.00,CLR,,0.00,WeatherDisplay:10.37,2013-01-10 02:42:00,
2013-01-09 21:44:00,56.7,33.8,30.41,WNW,285,19.6,19.6,42,0.00,CLR,,0.00,WeatherDisplay:10.37,2013-01-10 02:44:00,
2013-01-09 21:49:00,57.0,34.1,30.41,NNW,330,19.6,19.6,42,0.00,CLR,,0.00,WeatherDisplay:10.37,2013-01-10 02:49:00,
2013-01-09 21:50:00,56.5,33.7,30.41,NNW,342,15.0,15.0,42,0.00,CLR,,0.00,WeatherDisplay:10.37,2013-01-10 02:50:00,
2013-01-09 21:55:00,56.3,34.1,30.41,NW,306,11.5,11.5,43,0.00,CLR,,0.00,WeatherDisplay:10.37,2013-01-10 02:55:00,
2013-01-09 21:56:00,56.1,33.9,30.41,NW,311,11.5,11.5,43,0.00,CLR,,0.00,WeatherDisplay:10.37,2013-01-10 02:56:00,
2013-01-09 22:00:00,55.7,34.1,30.41,NNW,336,13.8,13.8,44,0.00,CLR,,0.00,WeatherDisplay:10.37,2013-01-10 03:00:00,
2013-01-09 22:01:00,56.0,34.4,30.41,NW,315,18.5,18.5,44,0.00,CLR,,0.00,WeatherDisplay:10.37,2013-01-10 03:01:00,
2013-01-09 22:03:00,56.1,33.9,30.41,NW,322,18.4,18.4,43,0.00,CLR,,0.00,WeatherDisplay:10.37,2013-01-10 03:03:00,
2013-01-09 22:07:00,56.4,34.2,30.42,NNW,337,8.1,8.1,43,0.00,CLR,,0.00,WeatherDisplay:10.37,2013-01-10 03:07:00,
2013-01-09 22:09:00,56.2,33.4,30.42,NW,305,12.7,12.7,42,0.00,CLR,,0.00,WeatherDisplay:10.37,2013-01-10 03:09:00,
2013-01-09 22:10:00,55.7,32.9,30.42,NW,316,13.2,13.2,42,0.00,CLR,,0.00,WeatherDisplay:10.37,2013-01-10 03:10:00,
2013-01-09 22:12:00,55.9,33.1,30.42,NW,326,15.0,15.0,42,0.00,CLR,,0.00,WeatherDisplay:10.37,2013-01-10 03:12:00,
2013-01-09 22:15:00,56.1,33.3,30.42,WNW,284,6.9,6.9,42,0.00,CLR,,0.00,WeatherDisplay:10.37,2013-01-10 03:15:00,
2013-01-09 22:17:00,55.9,33.7,30.42,NW,311,6.9,6.9,43,0.00,CLR,,0.00,WeatherDisplay:10.37,2013-01-10 03:17:00,
2013-01-09 22:20:00,56.0,33.8,30.42,NW,322,9.2,9.2,43,0.00,CLR,,0.00,WeatherDisplay:10.37,2013-01-10 03:20:00,
2013-01-09 22:21:00,55.7,33.5,30.42,WSW,253,4.6,4.6,43,0.00,CLR,,0.00,WeatherDisplay:10.37,2013-01-10 03:21:00,
2013-01-09 22:24:00,55.8,33.6,30.42,WSW,248,10.4,10.4,43,0.00,CLR,,0.00,WeatherDisplay:10.37,2013-01-10 03:24:00,
2013-01-09 22:26:00,55.7,33.5,30.42,NW,318,9.2,9.2,43,0.00,CLR,,0.00,WeatherDisplay:10.37,2013-01-10 03:26:00,
2013-01-09 22:29:00,55.2,33.1,30.43,WNW,282,8.1,8.1,43,0.00,CLR,,0.00,WeatherDisplay:10.37,2013-01-10 03:29:00,
2013-01-09 22:31:00,55.4,33.8,30.43,WSW,237,3.5,0.0,44,0.00,CLR,,0.00,WeatherDisplay:10.37,2013-01-10 03:31:00,
2013-01-09 22:34:00,55.4,33.8,30.43,WSW,237,0.0,0.0,44,0.00,CLR,,0.00,WeatherDisplay:10.37,2013-01-10 03:34:00,
2013-01-09 22:35:00,55.1,33.6,30.43,WSW,237,0.0,0.0,44,0.00,CLR,,0.00,WeatherDisplay:10.37,2013-01-10 03:35:00,
2013-01-09 22:36:00,55.1,33.6,30.43,WSW,237,0.0,0.0,44,0.00,CLR,,0.00,WeatherDisplay:10.37,2013-01-10 03:36:00,
2013-01-09 22:39:00,55.1,33.0,30.44,WSW,239,5.8,5.8,43,0.00,CLR,,0.00,WeatherDisplay:10.37,2013-01-10 03:39:00,
2013-01-09 22:40:00,55.2,33.6,30.44,West,280,2.3,2.3,44,0.00,CLR,,0.00,WeatherDisplay:10.37,2013-01-10 03:40:00,
2013-01-09 22:41:00,55.0,33.5,30.44,NNW,336,3.4,3.4,44,0.00,CLR,,0.00,WeatherDisplay:10.37,2013-01-10 03:41:00,
2013-01-09 22:43:00,55.0,33.5,30.44,WNW,299,5.8,5.8,44,0.00,CLR,,0.00,WeatherDisplay:10.37,2013-01-10 03:43:00,
2013-01-09 22:44:00,54.8,33.3,30.44,NW,312,4.6,4.6,44,0.00,CLR,,0.00,WeatherDisplay:10.37,2013-01-10 03:44:00,
2013-01-09 22:46:00,54.9,33.4,30.44,NW,326,8.1,8.1,44,0.00,CLR,,0.00,WeatherDisplay:10.37,2013-01-10 03:46:00,
2013-01-09 22:47:00,54.8,33.3,30.44,NW,309,5.8,5.8,44,0.00,CLR,,0.00,WeatherDisplay:10.37,2013-01-10 03:47:00,
2013-01-09 22:48:00,54.5,33.6,30.44,NNW,332,5.8,5.8,45,0.00,CLR,,0.00,WeatherDisplay:10.37,2013-01-10 03:48:00,
2013-01-09 22:50:00,54.6,33.1,30.44,North,360,8.1,8.1,44,0.00,CLR,,0.00,WeatherDisplay:10.37,2013-01-10 03:50:00,
2013-01-09 22:51:00,54.3,32.8,30.44,NW,325,8.1,8.1,44,0.00,CLR,,0.00,WeatherDisplay:10.37,2013-01-10 03:51:00,
2013-01-09 22:53:00,54.6,32.5,30.44,NW,320,9.2,9.2,43,0.00,CLR,,0.00,WeatherDisplay:10.37,2013-01-10 03:53:00,
2013-01-09 22:54:00,54.6,32.5,30.44,NW,316,6.0,9.0,43,0.00,CLR,,0.00,WeatherDisplay:10.37,2013-01-10 03:54:00,
2013-01-09 22:55:00,54.7,32.6,30.44,NW,308,8.1,8.1,43,0.00,CLR,,0.00,WeatherDisplay:10.37,2013-01-10 03:55:00,
2013-01-09 22:56:00,54.5,33.0,30.44,NNW,332,6.9,6.9,44,0.00,CLR,,0.00,WeatherDisplay:10.37,2013-01-10 03:56:00,
2013-01-09 22:58:00,54.6,33.1,30.44,NNW,346,9.2,9.2,44,0.00,CLR,,0.00,WeatherDisplay:10.37,2013-01-10 03:58:00,
2013-01-09 22:59:00,54.4,33.0,30.44,NW,320,6.0,11.0,44,0.00,CLR,,0.00,WeatherDisplay:10.37,2013-01-10 03:59:00,
2013-01-09 23:02:00,54.7,32.0,30.43,NNW,337,11.5,11.5,42,0.00,CLR,,0.00,WeatherDisplay:10.37,2013-01-10 04:02:00,
2013-01-09 23:03:00,54.8,31.5,30.43,NW,326,13.8,13.8,41,0.00,CLR,,0.00,WeatherDisplay:10.37,2013-01-10 04:03:00,
2013-01-09 23:04:00,54.9,31.6,30.43,WNW,292,13.8,13.8,41,0.00,CLR,,0.00,WeatherDisplay:10.37,2013-01-10 04:04:00,
2013-01-09 23:07:00,55.0,31.1,30.43,West,275,12.7,12.7,40,0.00,CLR,,0.00,WeatherDisplay:10.37,2013-01-10 04:07:00,
2013-01-09 23:08:00,54.8,30.9,30.43,NNW,340,12.7,12.7,40,0.00,CLR,,0.00,WeatherDisplay:10.37,2013-01-10 04:08:00,
2013-01-09 23:09:00,54.8,30.9,30.43,WNW,296,10.4,10.4,40,0.00,CLR,,0.00,WeatherDisplay:10.37,2013-01-10 04:09:00,
2013-01-09 23:12:00,54.8,30.9,30.43,NNW,335,9.2,9.2,40,0.00,CLR,,0.00,WeatherDisplay:10.37,2013-01-10 04:12:00,
2013-01-09 23:14:00,54.9,31.0,30.43,NW,308,8.1,8.1,40,0.00,CLR,,0.00,WeatherDisplay:10.37,2013-01-10 04:14:00,
2013-01-09 23:18:00,54.6,30.7,30.43,WNW,282,6.9,6.9,40,0.00,CLR,,0.00,WeatherDisplay:10.37,2013-01-10 04:18:00,
2013-01-09 23:19:00,54.7,30.2,30.43,NNW,333,5.8,5.8,39,0.00,CLR,,0.00,WeatherDisplay:10.37,2013-01-10 04:19:00,
2013-01-09 23:20:00,54.6,30.7,30.44,NNW,333,3.5,0.0,40,0.00,CLR,,0.00,WeatherDisplay:10.37,2013-01-10 04:20:00,
2013-01-09 23:21:00,54.6,30.7,30.44,NNW,333,0.0,0.0,40,0.00,CLR,,0.00,WeatherDisplay:10.37,2013-01-10 04:21:00,
2013-01-09 23:23:00,54.5,30.6,30.44,NNW,333,0.0,0.0,40,0.00,CLR,,0.00,WeatherDisplay:10.37,2013-01-10 04:23:00,
2013-01-09 23:24:00,54.3,30.5,30.44,NNW,333,0.0,0.0,40,0.00,CLR,,0.00,WeatherDisplay:10.37,2013-01-10 04:24:00,
2013-01-09 23:27:00,54.0,30.8,30.44,NNW,333,0.0,0.0,41,0.00,CLR,,0.00,WeatherDisplay:10.37,2013-01-10 04:27:00,
2013-01-09 23:29:00,54.1,30.9,30.44,NNW,333,0.0,0.0,41,0.00,CLR,,0.00,WeatherDisplay:10.37,2013-01-10 04:29:00,
2013-01-09 23:32:00,53.7,29.3,30.44,NNW,333,0.0,0.0,39,0.00,CLR,,0.00,WeatherDisplay:10.37,2013-01-10 04:32:00,
2013-01-09 23:33:00,53.4,29.7,30.44,NNW,333,0.0,0.0,40,0.00,CLR,,0.00,WeatherDisplay:10.37,2013-01-10 04:33:00,
2013-01-09 23:34:00,53.5,29.8,30.44,NNW,333,0.0,0.0,40,0.00,CLR,,0.00,WeatherDisplay:10.37,2013-01-10 04:34:00,
2013-01-09 23:35:00,53.2,29.5,30.44,NW,325,5.4,5.4,40,0.00,CLR,,0.00,WeatherDisplay:10.37,2013-01-10 04:35:00,
2013-01-09 23:37:00,52.7,29.6,30.43,NW,326,0.0,0.0,41,0.00,CLR,,0.00,WeatherDisplay:10.37,2013-01-10 04:37:00,
2013-01-09 23:39:00,52.9,29.2,30.43,NW,326,2.0,9.0,40,0.00,CLR,,0.00,WeatherDisplay:10.37,2013-01-10 04:39:00,
2013-01-09 23:42:00,52.3,28.7,30.43,NW,319,9.2,9.2,40,0.00,CLR,,0.00,WeatherDisplay:10.37,2013-01-10 04:42:00,
2013-01-09 23:44:00,52.5,30.0,30.43,WNW,291,6.9,6.9,42,0.00,CLR,,0.00,WeatherDisplay:10.37,2013-01-10 04:44:00,
2013-01-09 23:45:00,52.3,30.4,30.43,NW,319,8.1,8.1,43,0.00,CLR,,0.00,WeatherDisplay:10.37,2013-01-10 04:45:00,
2013-01-09 23:46:00,52.1,28.5,30.43,NNW,344,9.2,9.2,40,0.00,CLR,,0.00,WeatherDisplay:10.37,2013-01-10 04:46:00,
2013-01-09 23:48:00,52.1,27.2,30.44,WNW,296,8.1,8.1,38,0.00,CLR,,0.00,WeatherDisplay:10.37,2013-01-10 04:48:00,
2013-01-09 23:51:00,52.0,25.2,30.43,NW,306,8.1,8.1,35,0.00,CLR,,0.00,WeatherDisplay:10.37,2013-01-10 04:51:00,
2013-01-09 23:52:00,52.2,23.9,30.43,NNW,337,8.1,8.1,33,0.00,CLR,,0.00,WeatherDisplay:10.37,2013-01-10 04:52:00,
2013-01-09 23:53:00,52.8,24.5,30.43,NW,305,12.7,12.7,33,0.00,CLR,,0.00,WeatherDisplay:10.37,2013-01-10 04:53:00,
2013-01-09 23:56:00,52.4,23.4,30.44,North,6,8.1,8.1,32,0.00,CLR,,0.00,WeatherDisplay:10.37,2013-01-10 04:56:00,
2013-01-09 23:58:00,52.2,20.9,30.44,NNW,337,9.2,9.2,29,0.00,CLR,,0.00,WeatherDisplay:10.37,2013-01-10 04:58:00,
2013-01-09 23:59:00,52.4,21.0,30.44,NNW,337,10.4,10.4,29,0.00,CLR,,0.00,WeatherDisplay:10.37,2013-01-10 04:59:00,